| time (UTC) | temp C | wind direction | speed KPH | gust KPH | rain 1hr cm | rain 24hr cm | rain mn cm | humidity % | barometer mb |
| 20260831154003 | 31 | 185 | 4.8 | 9.7 | 0.00 | 0.00 | 0.00 | 74 | 1015.0 |
| 20260831153902 | 31 | 235 | 3.2 | 9.7 | 0.00 | 0.00 | 0.00 | 75 | 1015.1 |
| 20260831153802 | 31 | 166 | 1.6 | 9.7 | 0.00 | 0.00 | 0.00 | 74 | 1015.0 |
| 20260831153704 | 31 | 121 | 3.2 | 9.7 | 0.00 | 0.00 | 0.00 | 74 | 1015.1 |
| 20260831153602 | 31 | 121 | 4.8 | 9.7 | 0.00 | 0.00 | 0.00 | 75 | 1015.1 |
| 20260831153502 | 31 | 171 | 4.8 | 9.7 | 0.00 | 0.00 | 0.00 | 75 | 1015.0 |
| 20260831153404 | 31 | 113 | 3.2 | 8.0 | 0.00 | 0.00 | 0.00 | 75 | 1015.1 |
| 20260831153303 | 31 | 250 | 1.6 | 8.0 | 0.00 | 0.00 | 0.00 | 76 | 1015.1 |
| 20260831153202 | 31 | 251 | 3.2 | 8.0 | 0.00 | 0.00 | 0.00 | 76 | 1015.1 |
| 20260831153102 | 31 | 252 | 4.8 | 8.0 | 0.00 | 0.00 | 0.00 | 76 | 1015.0 |
| 20260831153004 | 31 | 235 | 3.2 | 8.0 | 0.00 | 0.00 | 0.00 | 76 | 1015.1 |
| 20260831152902 | 30 | 324 | 0.0 | 4.8 | 0.00 | 0.00 | 0.00 | 76 | 1015.1 |
| 20260831152802 | 30 | 324 | 0.0 | 4.8 | 0.00 | 0.00 | 0.00 | 76 | 1015.0 |
| 20260831152704 | 30 | 324 | 1.6 | 4.8 | 0.00 | 0.00 | 0.00 | 75 | 1015.0 |
| 20260831152603 | 30 | 324 | 3.2 | 8.0 | 0.00 | 0.00 | 0.00 | 75 | 1015.0 |
| 20260831152502 | 30 | 323 | 3.2 | 8.0 | 0.00 | 0.00 | 0.00 | 75 | 1015.0 |
| 20260831152403 | 30 | 286 | 3.2 | 8.0 | 0.00 | 0.00 | 0.00 | 76 | 1014.9 |
| 20260831152306 | 30 | 331 | 3.2 | 8.0 | 0.00 | 0.00 | 0.00 | 75 | 1015.0 |
| 20260831152203 | 30 | 334 | 3.2 | 8.0 | 0.00 | 0.00 | 0.00 | 75 | 1015.0 |
| 20260831152102 | 30 | 334 | 3.2 | 8.0 | 0.00 | 0.00 | 0.00 | 76 | 1015.0 |
| 20260831152005 | 30 | 334 | 1.6 | 9.7 | 0.00 | 0.00 | 0.00 | 76 | 1014.9 |
| 20260831151902 | 30 | 41 | 1.6 | 9.7 | 0.00 | 0.00 | 0.00 | 75 | 1015.0 |
| 20260831151802 | 30 | 41 | 3.2 | 9.7 | 0.00 | 0.00 | 0.00 | 75 | 1015.0 |
| 20260831151704 | 31 | 41 | 3.2 | 9.7 | 0.00 | 0.00 | 0.00 | 74 | 1015.0 |
| 20260831151602 | 31 | 41 | 1.6 | 9.7 | 0.00 | 0.00 | 0.00 | 74 | 1014.9 |
| 20260831151503 | 31 | 41 | 3.2 | 9.7 | 0.00 | 0.00 | 0.00 | 73 | 1014.9 |
| 20260831151358 | 31 | 41 | 4.8 | 9.7 | 0.00 | 0.00 | 0.00 | 75 | 1014.9 |
| 20260831151257 | 31 | 99 | 3.2 | 9.7 | 0.00 | 0.00 | 0.00 | 75 | 1014.9 |
| 20260831151156 | 31 | 104 | 3.2 | 9.7 | 0.00 | 0.00 | 0.00 | 75 | 1014.8 |
| 20260831151056 | 31 | 106 | 3.2 | 9.7 | 0.00 | 0.00 | 0.00 | 75 | 1014.8 |
| 20260831150953 | 31 | 92 | 3.2 | 8.0 | 0.00 | 0.00 | 0.00 | 75 | 1014.8 |
| 20260831150852 | 31 | 89 | 3.2 | 8.0 | 0.00 | 0.00 | 0.00 | 76 | 1014.8 |
| 20260831150750 | 31 | 178 | 3.2 | 8.0 | 0.00 | 0.00 | 0.00 | 76 | 1014.9 |
| 20260831150649 | 31 | 118 | 1.6 | 8.0 | 0.00 | 0.00 | 0.00 | 77 | 1014.9 |
| 20260831150548 | 30 | 20 | 1.6 | 8.0 | 0.00 | 0.00 | 0.00 | 77 | 1014.8 |
| 20260831150446 | 30 | 20 | 3.2 | 8.0 | 0.00 | 0.00 | 0.00 | 77 | 1014.8 |
| 20260831150344 | 30 | 39 | 4.8 | 8.0 | 0.00 | 0.00 | 0.00 | 77 | 1014.8 |
| 20260831150242 | 30 | 39 | 4.8 | 9.7 | 0.00 | 0.00 | 0.00 | 77 | 1014.9 |
| 20260831150141 | 30 | 49 | 4.8 | 9.7 | 0.00 | 0.00 | 0.00 | 78 | 1014.8 |
| 20260831150039 | 30 | 48 | 1.6 | 9.7 | 0.00 | 0.00 | 0.00 | 79 | 1014.8 |
| 20260831145938 | 30 | 94 | 1.6 | 9.7 | 0.00 | 0.00 | 0.00 | 79 | 1014.8 |
| 20260831145835 | 30 | 96 | 0.0 | 9.7 | 0.00 | 0.00 | 0.00 | 79 | 1014.9 |
| 20260831145736 | 30 | 96 | 3.2 | 9.7 | 0.00 | 0.00 | 0.00 | 79 | 1014.9 |
| 20260831145634 | 30 | 96 | 3.2 | 9.7 | 0.00 | 0.00 | 0.00 | 79 | 1014.9 |
| 20260831145533 | 30 | 94 | 3.2 | 9.7 | 0.00 | 0.00 | 0.00 | 78 | 1014.9 |
| 20260831145432 | 30 | 94 | 6.4 | 9.7 | 0.00 | 0.00 | 0.00 | 78 | 1014.9 |
| 20260831145333 | 30 | 93 | 6.4 | 9.7 | 0.00 | 0.00 | 0.00 | 79 | 1014.9 |
| 20260831145233 | 30 | 34 | 4.8 | 9.7 | 0.00 | 0.00 | 0.00 | 79 | 1014.9 |
| 20260831145132 | 30 | 51 | 4.8 | 9.7 | 0.00 | 0.00 | 0.00 | 79 | 1014.9 |
| 20260831145033 | 30 | 51 | 1.6 | 9.7 | 0.00 | 0.00 | 0.00 | 79 | 1014.9 |
| 20260831144933 | 30 | 20 | 3.2 | 9.7 | 0.00 | 0.00 | 0.00 | 79 | 1014.9 |
| 20260831144832 | 30 | 20 | 6.4 | 9.7 | 0.00 | 0.00 | 0.00 | 79 | 1014.9 |
| 20260831144732 | 30 | 20 | 6.4 | 9.7 | 0.00 | 0.00 | 0.00 | 80 | 1015.0 |
| 20260831144632 | 30 | 28 | 4.8 | 9.7 | 0.00 | 0.00 | 0.00 | 80 | 1014.9 |
| 20260831144532 | 30 | 13 | 6.4 | 9.7 | 0.00 | 0.00 | 0.00 | 80 | 1014.8 |
| 20260831144432 | 30 | 14 | 8.0 | 9.7 | 0.00 | 0.00 | 0.00 | 81 | 1014.8 |
| 20260831144332 | 30 | 39 | 6.4 | 9.7 | 0.00 | 0.00 | 0.00 | 81 | 1014.9 |
| 20260831144233 | 30 | 18 | 3.2 | 8.0 | 0.00 | 0.00 | 0.00 | 81 | 1014.9 |
| 20260831144133 | 30 | 23 | 4.8 | 8.0 | 0.00 | 0.00 | 0.00 | 81 | 1014.9 |
| 20260831144032 | 30 | 23 | 4.8 | 8.0 | 0.00 | 0.00 | 0.00 | 81 | 1014.9 |
| 20260831143934 | 30 | 68 | 3.2 | 6.4 | 0.00 | 0.00 | 0.00 | 82 | 1014.9 |
| 20260831143832 | 29 | 51 | 3.2 | 6.4 | 0.00 | 0.00 | 0.00 | 82 | 1014.8 |
| 20260831143733 | 29 | 51 | 3.2 | 6.4 | 0.00 | 0.00 | 0.00 | 81 | 1014.8 |
| 20260831143633 | 29 | 51 | 4.8 | 6.4 | 0.00 | 0.00 | 0.00 | 81 | 1014.8 |
| 20260831143532 | 29 | 51 | 4.8 | 6.4 | 0.00 | 0.00 | 0.00 | 81 | 1014.8 |
| 20260831143432 | 30 | 44 | 4.8 | 6.4 | 0.00 | 0.00 | 0.00 | 81 | 1014.8 |
| 20260831143332 | 30 | 39 | 3.2 | 6.4 | 0.00 | 0.00 | 0.00 | 81 | 1014.8 |
| 20260831143233 | 30 | 16 | 3.2 | 9.7 | 0.00 | 0.00 | 0.00 | 81 | 1014.8 |
| 20260831143132 | 30 | 16 | 4.8 | 9.7 | 0.00 | 0.00 | 0.00 | 81 | 1014.9 |
| 20260831143031 | 30 | 16 | 4.8 | 9.7 | 0.00 | 0.00 | 0.00 | 82 | 1014.8 |
| 20260831142931 | 30 | 13 | 4.8 | 9.7 | 0.00 | 0.00 | 0.00 | 82 | 1014.9 |
| 20260831142832 | 29 | 37 | 4.8 | 9.7 | 0.00 | 0.00 | 0.00 | 82 | 1014.8 |
| 20260831142732 | 29 | 28 | 3.2 | 9.7 | 0.00 | 0.00 | 0.00 | 82 | 1014.8 |
| 20260831142632 | 29 | 16 | 3.2 | 9.7 | 0.00 | 0.00 | 0.00 | 82 | 1014.9 |
| 20260831142531 | 29 | 16 | 4.8 | 9.7 | 0.00 | 0.00 | 0.00 | 82 | 1014.9 |
| 20260831142433 | 29 | 14 | 4.8 | 9.7 | 0.00 | 0.00 | 0.00 | 82 | 1014.9 |
| 20260831142332 | 29 | 42 | 3.2 | 9.7 | 0.00 | 0.00 | 0.00 | 83 | 1014.9 |
| 20260831142232 | 29 | 16 | 0.0 | 6.4 | 0.00 | 0.00 | 0.00 | 83 | 1014.8 |
| 20260831142132 | 29 | 16 | 0.0 | 6.4 | 0.00 | 0.00 | 0.00 | 83 | 1014.8 |
| 20260831142032 | 29 | 17 | 0.0 | 6.4 | 0.00 | 0.00 | 0.00 | 83 | 1014.8 |
| 20260831141931 | 29 | 17 | 0.0 | 6.4 | 0.00 | 0.00 | 0.00 | 83 | 1014.9 |
| 20260831141833 | 29 | 334 | 0.0 | 6.4 | 0.00 | 0.00 | 0.00 | 83 | 1014.8 |
| 20260831141732 | 29 | 334 | 1.6 | 6.4 | 0.00 | 0.00 | 0.00 | 83 | 1014.8 |
| 20260831141631 | 29 | 334 | 3.2 | 6.4 | 0.00 | 0.00 | 0.00 | 83 | 1014.8 |
| 20260831141533 | 29 | 334 | 4.8 | 6.4 | 0.00 | 0.00 | 0.00 | 84 | 1014.8 |
| 20260831141431 | 28 | 333 | 4.8 | 6.4 | 0.00 | 0.00 | 0.00 | 83 | 1014.8 |
| 20260831141332 | 28 | 338 | 4.8 | 6.4 | 0.00 | 0.00 | 0.00 | 83 | 1014.7 |
| 20260831141232 | 28 | 351 | 3.2 | 6.4 | 0.00 | 0.00 | 0.00 | 84 | 1014.8 |
| 20260831141133 | 28 | 14 | 1.6 | 6.4 | 0.00 | 0.00 | 0.00 | 84 | 1014.7 |
| 20260831141032 | 28 | 20 | 1.6 | 6.4 | 0.00 | 0.00 | 0.00 | 84 | 1014.7 |
| 20260831140932 | 28 | 20 | 3.2 | 6.4 | 0.00 | 0.00 | 0.00 | 84 | 1014.7 |
| 20260831140831 | 28 | 20 | 3.2 | 6.4 | 0.00 | 0.00 | 0.00 | 84 | 1014.8 |
| 20260831140731 | 28 | 35 | 4.8 | 6.4 | 0.00 | 0.00 | 0.00 | 85 | 1014.7 |
| 20260831140631 | 28 | 0 | 3.2 | 6.4 | 0.00 | 0.00 | 0.00 | 85 | 1014.7 |
| 20260831140531 | 28 | 0 | 3.2 | 6.4 | 0.00 | 0.00 | 0.00 | 85 | 1014.7 |
| 20260831140433 | 28 | 0 | 3.2 | 6.4 | 0.00 | 0.00 | 0.00 | 85 | 1014.7 |
| 20260831140332 | 28 | 0 | 1.6 | 6.4 | 0.00 | 0.00 | 0.00 | 85 | 1014.6 |
| 20260831140232 | 28 | 0 | 3.2 | 6.4 | 0.00 | 0.00 | 0.00 | 86 | 1014.7 |
| 20260831140131 | 28 | 0 | 4.8 | 8.0 | 0.00 | 0.00 | 0.00 | 86 | 1014.6 |
| 20260831140033 | 28 | 0 | 3.2 | 8.0 | 0.00 | 0.00 | 0.00 | 86 | 1014.7 |
| 20260831135931 | 28 | 0 | 1.6 | 8.0 | 0.00 | 0.00 | 0.00 | 86 | 1014.7 |
| 20260831135831 | 28 | 0 | 3.2 | 8.0 | 0.00 | 0.00 | 0.00 | 86 | 1014.7 |
| 20260831135731 | 28 | 0 | 3.2 | 8.0 | 0.00 | 0.00 | 0.00 | 86 | 1014.7 |
| 20260831135632 | 28 | 0 | 3.2 | 8.0 | 0.00 | 0.00 | 0.00 | 86 | 1014.6 |
| 20260831135531 | 28 | 0 | 1.6 | 8.0 | 0.00 | 0.00 | 0.00 | 86 | 1014.6 |
| 20260831135432 | 28 | 0 | 3.2 | 8.0 | 0.00 | 0.00 | 0.00 | 86 | 1014.7 |
| 20260831135331 | 28 | 0 | 4.8 | 8.0 | 0.00 | 0.00 | 0.00 | 86 | 1014.6 |
| 20260831135231 | 28 | 0 | 4.8 | 8.0 | 0.00 | 0.00 | 0.00 | 87 | 1014.6 |
| 20260831135131 | 28 | 6 | 4.8 | 8.0 | 0.00 | 0.00 | 0.00 | 87 | 1014.6 |
| 20260831135033 | 28 | 10 | 4.8 | 8.0 | 0.00 | 0.00 | 0.00 | 87 | 1014.5 |
| 20260831134931 | 28 | 10 | 6.4 | 8.0 | 0.00 | 0.00 | 0.00 | 87 | 1014.6 |
| 20260831134831 | 27 | 8 | 4.8 | 8.0 | 0.00 | 0.00 | 0.00 | 87 | 1014.5 |
| 20260831134732 | 27 | 10 | 4.8 | 8.0 | 0.00 | 0.00 | 0.00 | 87 | 1014.5 |
| 20260831134631 | 27 | 11 | 4.8 | 8.0 | 0.00 | 0.00 | 0.00 | 88 | 1014.4 |
| 20260831134531 | 27 | 11 | 6.4 | 8.0 | 0.00 | 0.00 | 0.00 | 88 | 1014.5 |
| 20260831134432 | 27 | 10 | 6.4 | 8.0 | 0.00 | 0.00 | 0.00 | 88 | 1014.4 |
| 20260831134332 | 27 | 11 | 4.8 | 8.0 | 0.00 | 0.00 | 0.00 | 88 | 1014.5 |
| 20260831134231 | 27 | 0 | 3.2 | 6.4 | 0.00 | 0.00 | 0.00 | 88 | 1014.4 |
| 20260831134131 | 27 | 0 | 4.8 | 6.4 | 0.00 | 0.00 | 0.00 | 88 | 1014.5 |
| 20260831134033 | 27 | 0 | 3.2 | 6.4 | 0.00 | 0.00 | 0.00 | 89 | 1014.5 |
| 20260831133932 | 27 | 0 | 3.2 | 6.4 | 0.00 | 0.00 | 0.00 | 89 | 1014.5 |
| 20260831133831 | 27 | 0 | 3.2 | 6.4 | 0.00 | 0.00 | 0.00 | 89 | 1014.4 |
| 20260831133732 | 27 | 0 | 3.2 | 6.4 | 0.00 | 0.00 | 0.00 | 89 | 1014.5 |
| 20260831133631 | 27 | 0 | 3.2 | 6.4 | 0.00 | 0.00 | 0.00 | 89 | 1014.5 |
| 20260831133531 | 27 | 0 | 4.8 | 6.4 | 0.00 | 0.00 | 0.00 | 89 | 1014.5 |
| 20260831133431 | 27 | 0 | 3.2 | 6.4 | 0.00 | 0.00 | 0.00 | 89 | 1014.6 |
| 20260831133332 | 27 | 0 | 3.2 | 6.4 | 0.00 | 0.00 | 0.00 | 89 | 1014.5 |
| 20260831133231 | 27 | 0 | 3.2 | 6.4 | 0.00 | 0.00 | 0.00 | 89 | 1014.5 |
| 20260831133132 | 27 | 0 | 3.2 | 4.8 | 0.00 | 0.00 | 0.00 | 89 | 1014.4 |
| 20260831133033 | 27 | 0 | 3.2 | 8.0 | 0.00 | 0.00 | 0.00 | 89 | 1014.4 |
| 20260831132932 | 27 | 0 | 3.2 | 8.0 | 0.00 | 0.00 | 0.00 | 89 | 1014.4 |
| 20260831132830 | 27 | 0 | 3.2 | 8.0 | 0.00 | 0.00 | 0.00 | 89 | 1014.4 |
| 20260831132731 | 27 | 0 | 3.2 | 8.0 | 0.00 | 0.00 | 0.00 | 89 | 1014.4 |
| 20260831132630 | 27 | 0 | 3.2 | 8.0 | 0.00 | 0.00 | 0.00 | 89 | 1014.3 |
| 20260831132531 | 27 | 0 | 1.6 | 8.0 | 0.00 | 0.00 | 0.00 | 89 | 1014.3 |
| 20260831132431 | 27 | 0 | 1.6 | 8.0 | 0.00 | 0.00 | 0.00 | 89 | 1014.3 |
| 20260831132330 | 27 | 0 | 3.2 | 8.0 | 0.00 | 0.00 | 0.00 | 89 | 1014.3 |
| 20260831132232 | 27 | 0 | 4.8 | 8.0 | 0.00 | 0.00 | 0.00 | 89 | 1014.3 |
| 20260831132130 | 27 | 0 | 4.8 | 8.0 | 0.00 | 0.00 | 0.00 | 89 | 1014.3 |
| 20260831132030 | 27 | 0 | 3.2 | 8.0 | 0.00 | 0.00 | 0.00 | 89 | 1014.2 |
| 20260831131931 | 27 | 0 | 3.2 | 8.0 | 0.00 | 0.00 | 0.00 | 89 | 1014.2 |
| 20260831131830 | 27 | 0 | 4.8 | 8.0 | 0.00 | 0.00 | 0.00 | 89 | 1014.2 |
| 20260831131728 | 27 | 0 | 4.8 | 8.0 | 0.00 | 0.00 | 0.00 | 89 | 1014.2 |
| 20260831131627 | 27 | 0 | 4.8 | 8.0 | 0.00 | 0.00 | 0.00 | 89 | 1014.1 |
| 20260831131525 | 27 | 351 | 3.2 | 6.4 | 0.00 | 0.00 | 0.00 | 89 | 1014.1 |
| 20260831131424 | 27 | 350 | 3.2 | 6.4 | 0.00 | 0.00 | 0.00 | 89 | 1014.1 |
| 20260831131323 | 27 | 350 | 3.2 | 6.4 | 0.00 | 0.00 | 0.00 | 89 | 1014.1 |
| 20260831131222 | 27 | 351 | 3.2 | 6.4 | 0.00 | 0.00 | 0.00 | 89 | 1014.1 |
| 20260831131119 | 27 | 351 | 3.2 | 6.4 | 0.00 | 0.00 | 0.00 | 89 | 1014.1 |
| 20260831131019 | 27 | 351 | 3.2 | 6.4 | 0.00 | 0.00 | 0.00 | 89 | 1014.0 |
| 20260831130917 | 27 | 351 | 3.2 | 6.4 | 0.00 | 0.00 | 0.00 | 89 | 1014.1 |
| 20260831130815 | 27 | 351 | 3.2 | 6.4 | 0.00 | 0.00 | 0.00 | 89 | 1014.1 |
| 20260831130715 | 27 | 351 | 3.2 | 6.4 | 0.00 | 0.00 | 0.00 | 89 | 1014.1 |
| 20260831130612 | 27 | 348 | 3.2 | 6.4 | 0.00 | 0.00 | 0.00 | 90 | 1014.1 |
| 20260831130510 | 27 | 348 | 3.2 | 6.4 | 0.00 | 0.00 | 0.00 | 90 | 1014.2 |
| 20260831130408 | 27 | 347 | 3.2 | 6.4 | 0.00 | 0.00 | 0.00 | 90 | 1014.1 |
| 20260831130309 | 27 | 347 | 4.8 | 6.4 | 0.00 | 0.00 | 0.00 | 90 | 1014.1 |
| 20260831130205 | 27 | 347 | 3.2 | 6.4 | 0.00 | 0.00 | 0.00 | 90 | 1014.1 |
| 20260831130107 | 27 | 337 | 3.2 | 4.8 | 0.00 | 0.00 | 0.00 | 90 | 1014.2 |
| 20260831130004 | 27 | 337 | 3.2 | 4.8 | 0.00 | 0.00 | 0.00 | 90 | 1014.1 |
| 20260831125902 | 27 | 337 | 3.2 | 4.8 | 0.00 | 0.00 | 0.00 | 90 | 1014.1 |
| 20260831125802 | 27 | 337 | 3.2 | 4.8 | 0.00 | 0.00 | 0.00 | 90 | 1014.1 |
| 20260831125704 | 27 | 336 | 3.2 | 4.8 | 0.00 | 0.00 | 0.00 | 90 | 1014.0 |
| 20260831125602 | 27 | 336 | 4.8 | 4.8 | 0.00 | 0.00 | 0.00 | 90 | 1014.0 |
| 20260831125502 | 27 | 336 | 3.2 | 4.8 | 0.00 | 0.00 | 0.00 | 90 | 1013.9 |
| 20260831125402 | 26 | 313 | 3.2 | 4.8 | 0.00 | 0.00 | 0.00 | 90 | 1013.9 |
| 20260831125306 | 26 | 0 | 3.2 | 4.8 | 0.00 | 0.00 | 0.00 | 90 | 1013.9 |
| 20260831125202 | 26 | 0 | 3.2 | 4.8 | 0.00 | 0.00 | 0.00 | 90 | 1013.9 |
| 20260831125101 | 26 | 0 | 3.2 | 4.8 | 0.00 | 0.00 | 0.00 | 90 | 1013.9 |
| 20260831125003 | 26 | 175 | 3.2 | 4.8 | 0.00 | 0.00 | 0.00 | 90 | 1013.8 |
| 20260831124902 | 26 | 169 | 1.6 | 4.8 | 0.00 | 0.00 | 0.00 | 90 | 1013.9 |
| 20260831124802 | 26 | 169 | 1.6 | 4.8 | 0.00 | 0.00 | 0.00 | 91 | 1013.8 |
| 20260831124702 | 26 | 0 | 1.6 | 4.8 | 0.00 | 0.00 | 0.00 | 91 | 1013.8 |
| 20260831124604 | 26 | 179 | 1.6 | 4.8 | 0.00 | 0.00 | 0.00 | 91 | 1013.7 |
| 20260831124502 | 26 | 188 | 1.6 | 4.8 | 0.00 | 0.00 | 0.00 | 91 | 1013.8 |
| 20260831124402 | 26 | 183 | 1.6 | 4.8 | 0.00 | 0.00 | 0.00 | 91 | 1013.7 |
| 20260831124303 | 26 | 183 | 3.2 | 4.8 | 0.00 | 0.00 | 0.00 | 91 | 1013.8 |
| 20260831124203 | 26 | 183 | 3.2 | 4.8 | 0.00 | 0.00 | 0.00 | 91 | 1013.7 |
| 20260831124102 | 26 | 0 | 3.2 | 4.8 | 0.00 | 0.00 | 0.00 | 91 | 1013.7 |
| 20260831124004 | 26 | 0 | 3.2 | 4.8 | 0.00 | 0.00 | 0.00 | 91 | 1013.7 |
| 20260831123903 | 26 | 0 | 3.2 | 4.8 | 0.00 | 0.00 | 0.00 | 91 | 1013.7 |
| 20260831123802 | 26 | 0 | 3.2 | 4.8 | 0.00 | 0.00 | 0.00 | 91 | 1013.7 |
| 20260831123702 | 26 | 0 | 1.6 | 4.8 | 0.00 | 0.00 | 0.00 | 91 | 1013.8 |
| 20260831123602 | 26 | 0 | 0.0 | 0.0 | 0.00 | 0.00 | 0.00 | 91 | 1013.7 |
| 20260831123503 | 26 | 0 | 0.0 | 0.0 | 0.00 | 0.00 | 0.00 | 91 | 1013.8 |
| 20260831123403 | 26 | 0 | 0.0 | 0.0 | 0.00 | 0.00 | 0.00 | 91 | 1013.8 |
| 20260831123302 | 26 | 237 | 0.0 | 0.0 | 0.00 | 0.00 | 0.00 | 91 | 1013.8 |
| 20260831123203 | 26 | 241 | 0.0 | 0.0 | 0.00 | 0.00 | 0.00 | 92 | 1013.9 |
| 20260831123102 | 26 | 241 | 0.0 | 0.0 | 0.00 | 0.00 | 0.00 | 92 | 1013.8 |
| 20260831123002 | 26 | 241 | 0.0 | 0.0 | 0.00 | 0.00 | 0.00 | 92 | 1013.9 |
| 20260831122904 | 26 | 241 | 0.0 | 0.0 | 0.00 | 0.00 | 0.00 | 92 | 1013.7 |
| 20260831122804 | 26 | 241 | 0.0 | 0.0 | 0.00 | 0.00 | 0.00 | 92 | 1013.7 |
| 20260831122703 | 26 | 241 | 0.0 | 0.0 | 0.00 | 0.00 | 0.00 | 92 | 1013.8 |
| 20260831122603 | 26 | 241 | 0.0 | 0.0 | 0.00 | 0.00 | 0.00 | 92 | 1013.7 |
| 20260831122504 | 26 | 241 | 0.0 | 0.0 | 0.00 | 0.00 | 0.00 | 92 | 1013.7 |
| 20260831122403 | 26 | 241 | 0.0 | 1.6 | 0.00 | 0.00 | 0.00 | 92 | 1013.7 |
| 20260831122305 | 26 | 241 | 0.0 | 3.2 | 0.00 | 0.00 | 0.00 | 92 | 1013.7 |
| 20260831122203 | 26 | 241 | 0.0 | 3.2 | 0.00 | 0.00 | 0.00 | 92 | 1013.6 |
| 20260831122102 | 26 | 241 | 0.0 | 4.8 | 0.00 | 0.00 | 0.00 | 92 | 1013.6 |
| 20260831122003 | 26 | 241 | 0.0 | 4.8 | 0.00 | 0.00 | 0.00 | 92 | 1013.6 |
| 20260831121903 | 26 | 241 | 0.0 | 4.8 | 0.00 | 0.00 | 0.00 | 92 | 1013.5 |
| 20260831121803 | 26 | 241 | 0.0 | 4.8 | 0.00 | 0.00 | 0.00 | 92 | 1013.4 |
| 20260831121703 | 26 | 241 | 0.0 | 4.8 | 0.00 | 0.00 | 0.00 | 92 | 1013.4 |
| 20260831121603 | 26 | 241 | 0.0 | 4.8 | 0.00 | 0.00 | 0.00 | 92 | 1013.4 |
| 20260831121503 | 26 | 241 | 1.6 | 4.8 | 0.00 | 0.00 | 0.00 | 92 | 1013.4 |
| 20260831121402 | 26 | 241 | 1.6 | 4.8 | 0.00 | 0.00 | 0.00 | 92 | 1013.3 |
| 20260831121302 | 26 | 241 | 3.2 | 4.8 | 0.00 | 0.00 | 0.00 | 92 | 1013.2 |
| 20260831121204 | 26 | 241 | 3.2 | 4.8 | 0.00 | 0.00 | 0.00 | 92 | 1013.3 |
| 20260831121102 | 25 | 210 | 0.0 | 3.2 | 0.00 | 0.00 | 0.00 | 92 | 1013.3 |
| 20260831121003 | 25 | 209 | 0.0 | 0.0 | 0.00 | 0.00 | 0.00 | 92 | 1013.3 |
| 20260831120903 | 25 | 209 | 0.0 | 0.0 | 0.00 | 0.00 | 0.00 | 92 | 1013.3 |
| 20260831120802 | 25 | 209 | 0.0 | 0.0 | 0.00 | 0.00 | 0.00 | 92 | 1013.3 |
| 20260831120702 | 25 | 209 | 0.0 | 0.0 | 0.00 | 0.00 | 0.00 | 92 | 1013.3 |
| 20260831120603 | 25 | 209 | 0.0 | 0.0 | 0.00 | 0.00 | 0.00 | 92 | 1013.4 |
| 20260831120503 | 25 | 209 | 0.0 | 0.0 | 0.00 | 0.00 | 0.00 | 92 | 1013.3 |
| 20260831120402 | 25 | 209 | 0.0 | 0.0 | 0.00 | 0.00 | 0.00 | 92 | 1013.3 |
| 20260831120303 | 25 | 209 | 0.0 | 0.0 | 0.00 | 0.00 | 0.00 | 92 | 1013.3 |
| 20260831120204 | 25 | 209 | 0.0 | 0.0 | 0.00 | 0.00 | 0.00 | 92 | 1013.3 |
| 20260831120004 | 25 | 209 | 0.0 | 0.0 | 0.00 | 0.00 | 0.00 | 92 | 1013.3 |
| 20260831115903 | 25 | 209 | 0.0 | 0.0 | 0.00 | 0.00 | 0.00 | 92 | 1013.2 |
| 20260831115803 | 25 | 209 | 0.0 | 0.0 | 0.00 | 0.00 | 0.00 | 91 | 1013.3 |
| 20260831115702 | 25 | 207 | 0.0 | 0.0 | 0.00 | 0.00 | 0.00 | 91 | 1013.3 |
| 20260831115602 | 25 | 207 | 0.0 | 0.0 | 0.00 | 0.00 | 0.00 | 91 | 1013.3 |
| 20260831115505 | 25 | 207 | 0.0 | 0.0 | 0.00 | 0.00 | 0.00 | 91 | 1013.3 |
| 20260831115402 | 25 | 207 | 0.0 | 0.0 | 0.00 | 0.00 | 0.00 | 91 | 1013.3 |
| 20260831115306 | 25 | 207 | 0.0 | 0.0 | 0.00 | 0.00 | 0.00 | 91 | 1013.3 |
| 20260831115204 | 25 | 207 | 0.0 | 0.0 | 0.00 | 0.00 | 0.00 | 91 | 1013.3 |
| 20260831115102 | 26 | 206 | 0.0 | 0.0 | 0.00 | 0.00 | 0.00 | 91 | 1013.2 |
| 20260831115003 | 26 | 206 | 0.0 | 0.0 | 0.00 | 0.00 | 0.00 | 91 | 1013.3 |
| 20260831114902 | 26 | 206 | 0.0 | 0.0 | 0.00 | 0.00 | 0.00 | 91 | 1013.3 |
| 20260831114804 | 26 | 206 | 0.0 | 0.0 | 0.00 | 0.00 | 0.00 | 91 | 1013.2 |
| 20260831114702 | 26 | 206 | 0.0 | 0.0 | 0.00 | 0.00 | 0.00 | 91 | 1013.2 |
| 20260831114602 | 26 | 206 | 0.0 | 0.0 | 0.00 | 0.00 | 0.00 | 91 | 1013.3 |
| 20260831114504 | 26 | 206 | 0.0 | 0.0 | 0.00 | 0.00 | 0.00 | 91 | 1013.2 |
| 20260831114402 | 26 | 206 | 0.0 | 0.0 | 0.00 | 0.00 | 0.00 | 91 | 1013.2 |
| 20260831114302 | 26 | 206 | 0.0 | 0.0 | 0.00 | 0.00 | 0.00 | 91 | 1013.3 |
| 20260831114204 | 26 | 206 | 0.0 | 0.0 | 0.00 | 0.00 | 0.00 | 91 | 1013.3 |
| 20260831114103 | 26 | 206 | 0.0 | 0.0 | 0.00 | 0.00 | 0.00 | 91 | 1013.3 |
| 20260831114002 | 26 | 206 | 0.0 | 0.0 | 0.00 | 0.00 | 0.00 | 91 | 1013.3 |
| 20260831113903 | 26 | 206 | 0.0 | 0.0 | 0.00 | 0.00 | 0.00 | 91 | 1013.3 |
| 20260831113802 | 26 | 206 | 0.0 | 0.0 | 0.00 | 0.00 | 0.00 | 91 | 1013.3 |
| 20260831113702 | 26 | 206 | 0.0 | 0.0 | 0.00 | 0.00 | 0.00 | 91 | 1013.3 |
| 20260831113602 | 26 | 206 | 0.0 | 0.0 | 0.00 | 0.00 | 0.00 | 90 | 1013.4 |
| 20260831113505 | 26 | 206 | 0.0 | 0.0 | 0.00 | 0.00 | 0.00 | 90 | 1013.3 |
| 20260831113402 | 26 | 206 | 0.0 | 0.0 | 0.00 | 0.00 | 0.00 | 90 | 1013.3 |
| 20260831113302 | 26 | 206 | 0.0 | 0.0 | 0.00 | 0.00 | 0.00 | 90 | 1013.3 |
| 20260831113203 | 26 | 206 | 0.0 | 0.0 | 0.00 | 0.00 | 0.00 | 90 | 1013.3 |
| 20260831113104 | 26 | 206 | 0.0 | 0.0 | 0.00 | 0.00 | 0.00 | 90 | 1013.2 |
| 20260831113003 | 26 | 206 | 0.0 | 0.0 | 0.00 | 0.00 | 0.00 | 90 | 1013.2 |
| 20260831112902 | 26 | 206 | 0.0 | 0.0 | 0.00 | 0.00 | 0.00 | 90 | 1013.2 |
| 20260831112803 | 26 | 206 | 0.0 | 0.0 | 0.00 | 0.00 | 0.00 | 90 | 1013.1 |
| 20260831112704 | 26 | 206 | 0.0 | 0.0 | 0.00 | 0.00 | 0.00 | 90 | 1013.1 |
| 20260831112604 | 26 | 206 | 0.0 | 0.0 | 0.00 | 0.00 | 0.00 | 90 | 1013.1 |
| 20260831112502 | 26 | 206 | 0.0 | 0.0 | 0.00 | 0.00 | 0.00 | 90 | 1013.1 |
| 20260831112402 | 26 | 206 | 0.0 | 0.0 | 0.00 | 0.00 | 0.00 | 90 | 1013.1 |
| 20260831112306 | 26 | 206 | 0.0 | 0.0 | 0.00 | 0.00 | 0.00 | 90 | 1013.1 |
| 20260831112202 | 26 | 206 | 0.0 | 0.0 | 0.00 | 0.00 | 0.00 | 90 | 1013.2 |
| 20260831112104 | 26 | 206 | 0.0 | 0.0 | 0.00 | 0.00 | 0.00 | 90 | 1013.2 |
| 20260831112003 | 26 | 206 | 0.0 | 0.0 | 0.00 | 0.00 | 0.00 | 90 | 1013.2 |
| 20260831111902 | 26 | 206 | 0.0 | 0.0 | 0.00 | 0.00 | 0.00 | 90 | 1013.2 |
| 20260831111804 | 26 | 206 | 0.0 | 0.0 | 0.00 | 0.00 | 0.00 | 90 | 1013.3 |
| 20260831111703 | 26 | 206 | 0.0 | 0.0 | 0.00 | 0.00 | 0.00 | 90 | 1013.2 |
| 20260831111603 | 26 | 206 | 0.0 | 0.0 | 0.00 | 0.00 | 0.00 | 90 | 1013.2 |
| 20260831111503 | 26 | 206 | 0.0 | 0.0 | 0.00 | 0.00 | 0.00 | 90 | 1013.2 |
| 20260831111404 | 26 | 206 | 0.0 | 0.0 | 0.00 | 0.00 | 0.00 | 90 | 1013.1 |
| 20260831111303 | 26 | 206 | 0.0 | 0.0 | 0.00 | 0.00 | 0.00 | 90 | 1013.0 |
| 20260831111203 | 26 | 206 | 0.0 | 0.0 | 0.00 | 0.00 | 0.00 | 90 | 1013.1 |
| 20260831111104 | 26 | 206 | 0.0 | 0.0 | 0.00 | 0.00 | 0.00 | 90 | 1013.1 |
| 20260831111004 | 26 | 206 | 0.0 | 0.0 | 0.00 | 0.00 | 0.00 | 90 | 1013.1 |
| 20260831110901 | 26 | 206 | 0.0 | 0.0 | 0.00 | 0.00 | 0.00 | 90 | 1013.1 |
| 20260831110802 | 26 | 206 | 0.0 | 0.0 | 0.00 | 0.00 | 0.00 | 90 | 1013.1 |
| 20260831110704 | 26 | 206 | 0.0 | 0.0 | 0.00 | 0.00 | 0.00 | 90 | 1013.0 |
| 20260831110602 | 26 | 206 | 0.0 | 0.0 | 0.00 | 0.00 | 0.00 | 90 | 1013.0 |
| 20260831110502 | 26 | 206 | 0.0 | 0.0 | 0.00 | 0.00 | 0.00 | 89 | 1013.0 |
| 20260831110403 | 26 | 206 | 0.0 | 0.0 | 0.00 | 0.00 | 0.00 | 89 | 1013.1 |
| 20260831110302 | 26 | 206 | 0.0 | 0.0 | 0.00 | 0.00 | 0.00 | 89 | 1013.1 |
| 20260831110203 | 26 | 206 | 0.0 | 0.0 | 0.00 | 0.00 | 0.00 | 89 | 1013.1 |
| 20260831110103 | 26 | 206 | 0.0 | 0.0 | 0.00 | 0.00 | 0.00 | 89 | 1013.2 |
| 20260831110003 | 26 | 206 | 0.0 | 0.0 | 0.00 | 0.00 | 0.00 | 89 | 1013.2 |
| 20260831105902 | 26 | 206 | 0.0 | 1.6 | 0.00 | 0.00 | 0.00 | 89 | 1013.1 |
| 20260831105802 | 26 | 206 | 0.0 | 3.2 | 0.00 | 0.00 | 0.00 | 89 | 1013.1 |
| 20260831105703 | 26 | 206 | 0.0 | 3.2 | 0.00 | 0.00 | 0.00 | 89 | 1013.0 |
| 20260831105602 | 26 | 206 | 0.0 | 3.2 | 0.00 | 0.00 | 0.00 | 88 | 1013.2 |
| 20260831105503 | 26 | 206 | 0.0 | 3.2 | 0.00 | 0.00 | 0.00 | 88 | 1013.1 |
| 20260831105404 | 26 | 206 | 0.0 | 3.2 | 0.00 | 0.00 | 0.00 | 88 | 1013.2 |
| 20260831105306 | 26 | 206 | 0.0 | 3.2 | 0.00 | 0.00 | 0.00 | 88 | 1013.1 |
| 20260831105200 | 26 | 206 | 0.0 | 3.2 | 0.00 | 0.00 | 0.00 | 89 | 1013.1 |
| 20260831105059 | 26 | 206 | 0.0 | 3.2 | 0.00 | 0.00 | 0.00 | 89 | 1013.1 |
| 20260831104957 | 26 | 206 | 1.6 | 3.2 | 0.00 | 0.00 | 0.00 | 89 | 1013.1 |
| 20260831104856 | 26 | 206 | 1.6 | 3.2 | 0.00 | 0.00 | 0.00 | 89 | 1013.1 |
| 20260831104756 | 26 | 206 | 1.6 | 3.2 | 0.00 | 0.00 | 0.00 | 89 | 1013.1 |
| 20260831104652 | 26 | 203 | 1.6 | 3.2 | 0.00 | 0.00 | 0.00 | 89 | 1013.1 |
| 20260831104552 | 26 | 196 | 0.0 | 0.0 | 0.00 | 0.00 | 0.00 | 89 | 1013.1 |
| 20260831104450 | 26 | 196 | 0.0 | 0.0 | 0.00 | 0.00 | 0.00 | 89 | 1013.1 |
| 20260831104349 | 26 | 196 | 0.0 | 0.0 | 0.00 | 0.00 | 0.00 | 89 | 1013.0 |
| 20260831104247 | 26 | 196 | 0.0 | 0.0 | 0.00 | 0.00 | 0.00 | 89 | 1013.0 |
| 20260831104145 | 26 | 195 | 0.0 | 0.0 | 0.00 | 0.00 | 0.00 | 90 | 1013.0 |
| 20260831104043 | 26 | 195 | 0.0 | 0.0 | 0.00 | 0.00 | 0.00 | 90 | 1013.0 |
| 20260831103941 | 26 | 195 | 0.0 | 0.0 | 0.00 | 0.00 | 0.00 | 90 | 1013.0 |
| 20260831103842 | 26 | 193 | 0.0 | 0.0 | 0.00 | 0.00 | 0.00 | 90 | 1013.0 |
| 20260831103741 | 26 | 192 | 0.0 | 0.0 | 0.00 | 0.00 | 0.00 | 90 | 1013.0 |
| 20260831103639 | 26 | 192 | 0.0 | 0.0 | 0.00 | 0.00 | 0.00 | 90 | 1013.0 |
| 20260831103536 | 26 | 192 | 0.0 | 0.0 | 0.00 | 0.00 | 0.00 | 90 | 1013.0 |
| 20260831103435 | 26 | 192 | 0.0 | 0.0 | 0.00 | 0.00 | 0.00 | 90 | 1013.0 |
| 20260831103334 | 26 | 190 | 0.0 | 0.0 | 0.00 | 0.00 | 0.00 | 90 | 1013.0 |
| 20260831103232 | 26 | 190 | 0.0 | 0.0 | 0.00 | 0.00 | 0.00 | 91 | 1013.0 |
| 20260831103128 | 26 | 190 | 0.0 | 0.0 | 0.00 | 0.00 | 0.00 | 90 | 1013.1 |
| 20260831103026 | 26 | 190 | 0.0 | 0.0 | 0.00 | 0.00 | 0.00 | 90 | 1013.0 |
| 20260831102927 | 26 | 190 | 0.0 | 0.0 | 0.00 | 0.00 | 0.00 | 90 | 1013.1 |
| 20260831102828 | 26 | 190 | 0.0 | 0.0 | 0.00 | 0.00 | 0.00 | 90 | 1013.0 |
| 20260831102727 | 26 | 190 | 0.0 | 0.0 | 0.00 | 0.00 | 0.00 | 90 | 1012.9 |
| 20260831102626 | 26 | 190 | 0.0 | 0.0 | 0.00 | 0.00 | 0.00 | 90 | 1012.9 |
| 20260831102528 | 26 | 190 | 0.0 | 0.0 | 0.00 | 0.00 | 0.00 | 90 | 1013.0 |
| 20260831102428 | 26 | 190 | 0.0 | 0.0 | 0.00 | 0.00 | 0.00 | 90 | 1013.0 |
| 20260831102328 | 26 | 190 | 0.0 | 0.0 | 0.00 | 0.00 | 0.00 | 90 | 1013.0 |
| 20260831102228 | 26 | 190 | 0.0 | 0.0 | 0.00 | 0.00 | 0.00 | 90 | 1013.0 |
| 20260831102126 | 26 | 190 | 0.0 | 0.0 | 0.00 | 0.00 | 0.00 | 90 | 1013.1 |
| 20260831102027 | 26 | 190 | 0.0 | 0.0 | 0.00 | 0.00 | 0.00 | 90 | 1013.1 |
| 20260831101927 | 26 | 190 | 0.0 | 0.0 | 0.00 | 0.00 | 0.00 | 90 | 1013.1 |
| 20260831101826 | 26 | 190 | 0.0 | 0.0 | 0.00 | 0.00 | 0.00 | 90 | 1013.2 |
| 20260831101728 | 26 | 190 | 0.0 | 0.0 | 0.00 | 0.00 | 0.00 | 90 | 1013.1 |
| 20260831101627 | 26 | 190 | 0.0 | 0.0 | 0.00 | 0.00 | 0.00 | 90 | 1013.1 |
| 20260831101527 | 26 | 189 | 0.0 | 0.0 | 0.00 | 0.00 | 0.00 | 90 | 1013.2 |
| 20260831101427 | 26 | 188 | 0.0 | 0.0 | 0.00 | 0.00 | 0.00 | 90 | 1013.1 |
| 20260831101328 | 26 | 186 | 0.0 | 0.0 | 0.00 | 0.00 | 0.00 | 90 | 1013.1 |
| 20260831101227 | 26 | 186 | 0.0 | 0.0 | 0.00 | 0.00 | 0.00 | 90 | 1013.2 |
| 20260831101127 | 26 | 186 | 0.0 | 0.0 | 0.00 | 0.00 | 0.00 | 90 | 1013.2 |
| 20260831101026 | 26 | 186 | 0.0 | 0.0 | 0.00 | 0.00 | 0.00 | 90 | 1013.2 |
| 20260831100926 | 26 | 186 | 0.0 | 0.0 | 0.00 | 0.00 | 0.00 | 90 | 1013.2 |
| 20260831100827 | 26 | 186 | 0.0 | 0.0 | 0.00 | 0.00 | 0.00 | 90 | 1013.3 |
| 20260831100726 | 26 | 186 | 0.0 | 0.0 | 0.00 | 0.00 | 0.00 | 90 | 1013.3 |
| 20260831100626 | 26 | 186 | 0.0 | 0.0 | 0.00 | 0.00 | 0.00 | 90 | 1013.3 |
| 20260831100526 | 26 | 186 | 0.0 | 0.0 | 0.00 | 0.00 | 0.00 | 90 | 1013.3 |
| 20260831100427 | 26 | 186 | 0.0 | 0.0 | 0.00 | 0.00 | 0.00 | 90 | 1013.3 |
| 20260831100326 | 26 | 186 | 0.0 | 0.0 | 0.00 | 0.00 | 0.00 | 90 | 1013.2 |
| 20260831100226 | 26 | 186 | 0.0 | 0.0 | 0.00 | 0.00 | 0.00 | 90 | 1013.2 |
| 20260831100129 | 26 | 186 | 0.0 | 0.0 | 0.00 | 0.00 | 0.00 | 90 | 1013.2 |
| 20260831100025 | 26 | 186 | 0.0 | 0.0 | 0.00 | 0.00 | 0.00 | 90 | 1013.2 |
| 20260831095927 | 26 | 186 | 0.0 | 0.0 | 0.00 | 0.00 | 0.00 | 90 | 1013.2 |
| 20260831095827 | 26 | 186 | 0.0 | 0.0 | 0.00 | 0.00 | 0.00 | 90 | 1013.2 |
| 20260831095726 | 26 | 186 | 0.0 | 0.0 | 0.00 | 0.00 | 0.00 | 90 | 1013.3 |
| 20260831095626 | 26 | 186 | 0.0 | 0.0 | 0.00 | 0.00 | 0.00 | 90 | 1013.3 |
| 20260831095526 | 26 | 186 | 0.0 | 0.0 | 0.00 | 0.00 | 0.00 | 90 | 1013.3 |
| 20260831095428 | 26 | 186 | 0.0 | 0.0 | 0.00 | 0.00 | 0.00 | 90 | 1013.3 |
| 20260831095326 | 26 | 186 | 0.0 | 0.0 | 0.00 | 0.00 | 0.00 | 90 | 1013.3 |
| 20260831095225 | 26 | 186 | 0.0 | 0.0 | 0.00 | 0.00 | 0.00 | 90 | 1013.3 |
| 20260831095125 | 26 | 186 | 0.0 | 0.0 | 0.00 | 0.00 | 0.00 | 90 | 1013.3 |
| 20260831095025 | 26 | 186 | 0.0 | 0.0 | 0.00 | 0.00 | 0.00 | 90 | 1013.2 |
| 20260831094925 | 26 | 186 | 0.0 | 0.0 | 0.00 | 0.00 | 0.00 | 90 | 1013.3 |
| 20260831094826 | 26 | 186 | 0.0 | 0.0 | 0.00 | 0.00 | 0.00 | 90 | 1013.2 |
| 20260831094727 | 26 | 186 | 0.0 | 1.6 | 0.00 | 0.00 | 0.00 | 90 | 1013.2 |
| 20260831094626 | 26 | 186 | 0.0 | 3.2 | 0.00 | 0.00 | 0.00 | 90 | 1013.2 |
| 20260831094526 | 26 | 186 | 0.0 | 3.2 | 0.00 | 0.00 | 0.00 | 90 | 1013.2 |
| 20260831094428 | 26 | 186 | 0.0 | 3.2 | 0.00 | 0.00 | 0.00 | 90 | 1013.2 |
| 20260831094326 | 26 | 185 | 0.0 | 3.2 | 0.00 | 0.00 | 0.00 | 90 | 1013.2 |
| 20260831094225 | 26 | 185 | 0.0 | 3.2 | 0.00 | 0.00 | 0.00 | 90 | 1013.2 |
| 20260831094125 | 26 | 185 | 0.0 | 3.2 | 0.00 | 0.00 | 0.00 | 90 | 1013.2 |
| 20260831094026 | 26 | 185 | 0.0 | 3.2 | 0.00 | 0.00 | 0.00 | 90 | 1013.1 |
| 20260831093925 | 26 | 185 | 0.0 | 3.2 | 0.00 | 0.00 | 0.00 | 90 | 1013.1 |
| 20260831093825 | 26 | 185 | 1.6 | 3.2 | 0.00 | 0.00 | 0.00 | 89 | 1013.1 |
| 20260831093726 | 26 | 183 | 1.6 | 3.2 | 0.00 | 0.00 | 0.00 | 90 | 1013.1 |
| 20260831093625 | 26 | 182 | 1.6 | 3.2 | 0.00 | 0.00 | 0.00 | 89 | 1013.1 |
| 20260831093525 | 26 | 182 | 1.6 | 3.2 | 0.00 | 0.00 | 0.00 | 89 | 1013.0 |
| 20260831093425 | 26 | 180 | 1.6 | 3.2 | 0.00 | 0.00 | 0.00 | 89 | 1013.1 |
| 20260831093327 | 26 | 176 | 0.0 | 3.2 | 0.00 | 0.00 | 0.00 | 89 | 1013.1 |
| 20260831093225 | 26 | 176 | 1.6 | 3.2 | 0.00 | 0.00 | 0.00 | 90 | 1013.1 |
| 20260831093125 | 26 | 176 | 1.6 | 3.2 | 0.00 | 0.00 | 0.00 | 90 | 1013.1 |
| 20260831093026 | 26 | 176 | 0.0 | 1.6 | 0.00 | 0.00 | 0.00 | 90 | 1013.1 |
| 20260831092925 | 26 | 176 | 0.0 | 0.0 | 0.00 | 0.00 | 0.00 | 90 | 1013.0 |
| 20260831092825 | 26 | 176 | 0.0 | 0.0 | 0.00 | 0.00 | 0.00 | 90 | 1013.0 |
| 20260831092725 | 26 | 176 | 0.0 | 0.0 | 0.00 | 0.00 | 0.00 | 90 | 1013.0 |
| 20260831092625 | 26 | 176 | 0.0 | 0.0 | 0.00 | 0.00 | 0.00 | 90 | 1013.0 |
| 20260831092525 | 26 | 176 | 0.0 | 0.0 | 0.00 | 0.00 | 0.00 | 90 | 1013.0 |
| 20260831092426 | 26 | 176 | 0.0 | 0.0 | 0.00 | 0.00 | 0.00 | 90 | 1013.0 |
| 20260831092327 | 26 | 176 | 0.0 | 0.0 | 0.00 | 0.00 | 0.00 | 90 | 1013.1 |
| 20260831092225 | 26 | 176 | 0.0 | 0.0 | 0.00 | 0.00 | 0.00 | 89 | 1013.1 |
| 20260831092125 | 26 | 176 | 0.0 | 0.0 | 0.00 | 0.00 | 0.00 | 90 | 1013.0 |
| 20260831092026 | 26 | 176 | 0.0 | 0.0 | 0.00 | 0.00 | 0.00 | 89 | 1013.1 |
| 20260831091925 | 26 | 176 | 0.0 | 0.0 | 0.00 | 0.00 | 0.00 | 89 | 1013.0 |
| 20260831091824 | 26 | 176 | 0.0 | 0.0 | 0.00 | 0.00 | 0.00 | 89 | 1013.0 |
| 20260831091725 | 26 | 176 | 0.0 | 1.6 | 0.00 | 0.00 | 0.00 | 89 | 1013.0 |
| 20260831091625 | 26 | 176 | 0.0 | 3.2 | 0.00 | 0.00 | 0.00 | 89 | 1013.1 |
| 20260831091525 | 26 | 176 | 0.0 | 3.2 | 0.00 | 0.00 | 0.00 | 89 | 1013.0 |
| 20260831091425 | 26 | 176 | 0.0 | 3.2 | 0.00 | 0.00 | 0.00 | 89 | 1013.0 |
| 20260831091325 | 26 | 176 | 0.0 | 3.2 | 0.00 | 0.00 | 0.00 | 89 | 1013.0 |
| 20260831091224 | 26 | 176 | 0.0 | 3.2 | 0.00 | 0.00 | 0.00 | 89 | 1012.9 |
| 20260831091125 | 26 | 176 | 0.0 | 3.2 | 0.00 | 0.00 | 0.00 | 89 | 1012.9 |
| 20260831091025 | 26 | 176 | 0.0 | 3.2 | 0.00 | 0.00 | 0.00 | 89 | 1012.9 |
| 20260831090925 | 26 | 176 | 0.0 | 3.2 | 0.00 | 0.00 | 0.00 | 89 | 1013.0 |
| 20260831090824 | 26 | 176 | 0.0 | 3.2 | 0.00 | 0.00 | 0.00 | 89 | 1013.0 |
| 20260831090724 | 26 | 176 | 1.6 | 3.2 | 0.00 | 0.00 | 0.00 | 89 | 1013.0 |
| 20260831090625 | 26 | 176 | 1.6 | 3.2 | 0.00 | 0.00 | 0.00 | 89 | 1012.9 |
| 20260831090525 | 26 | 176 | 1.6 | 3.2 | 0.00 | 0.00 | 0.00 | 89 | 1012.9 |
| 20260831090426 | 26 | 176 | 0.0 | 3.2 | 0.00 | 0.00 | 0.00 | 89 | 1013.0 |
| 20260831090325 | 26 | 176 | 0.0 | 0.0 | 0.00 | 0.00 | 0.00 | 89 | 1013.0 |
| 20260831090226 | 26 | 169 | 0.0 | 0.0 | 0.00 | 0.00 | 0.00 | 89 | 1013.0 |
| 20260831090124 | 26 | 169 | 0.0 | 0.0 | 0.00 | 0.00 | 0.00 | 89 | 1013.0 |
| 20260831090025 | 26 | 169 | 0.0 | 0.0 | 0.00 | 0.00 | 0.00 | 89 | 1013.1 |
| 20260831085925 | 26 | 169 | 0.0 | 0.0 | 0.00 | 0.00 | 0.00 | 89 | 1013.1 |
| 20260831085824 | 26 | 169 | 0.0 | 0.0 | 0.00 | 0.00 | 0.00 | 89 | 1013.0 |
| 20260831085725 | 26 | 169 | 0.0 | 0.0 | 0.00 | 0.00 | 0.00 | 90 | 1013.0 |
| 20260831085625 | 26 | 169 | 0.0 | 0.0 | 0.00 | 0.00 | 0.00 | 89 | 1013.1 |
| 20260831085526 | 26 | 169 | 0.0 | 0.0 | 0.00 | 0.00 | 0.00 | 89 | 1013.1 |
| 20260831085424 | 26 | 169 | 0.0 | 0.0 | 0.00 | 0.00 | 0.00 | 90 | 1013.0 |
| 20260831085325 | 26 | 169 | 0.0 | 0.0 | 0.00 | 0.00 | 0.00 | 89 | 1013.1 |
| 20260831085225 | 26 | 169 | 0.0 | 0.0 | 0.00 | 0.00 | 0.00 | 89 | 1013.1 |
| 20260831085124 | 26 | 169 | 0.0 | 0.0 | 0.00 | 0.00 | 0.00 | 89 | 1013.1 |
| 20260831085025 | 26 | 169 | 0.0 | 0.0 | 0.00 | 0.00 | 0.00 | 89 | 1013.1 |
| 20260831084925 | 26 | 169 | 0.0 | 0.0 | 0.00 | 0.00 | 0.00 | 90 | 1013.1 |
| 20260831084825 | 26 | 169 | 0.0 | 0.0 | 0.00 | 0.00 | 0.00 | 90 | 1013.1 |
| 20260831084724 | 26 | 169 | 0.0 | 0.0 | 0.00 | 0.00 | 0.00 | 90 | 1013.1 |
| 20260831084625 | 26 | 169 | 0.0 | 0.0 | 0.00 | 0.00 | 0.00 | 90 | 1013.2 |
| 20260831084526 | 26 | 169 | 0.0 | 0.0 | 0.00 | 0.00 | 0.00 | 90 | 1013.2 |
| 20260831084425 | 26 | 169 | 0.0 | 0.0 | 0.00 | 0.00 | 0.00 | 90 | 1013.2 |
| 20260831084324 | 26 | 169 | 0.0 | 0.0 | 0.00 | 0.00 | 0.00 | 90 | 1013.2 |
| 20260831084224 | 26 | 169 | 0.0 | 0.0 | 0.00 | 0.00 | 0.00 | 90 | 1013.2 |
| 20260831084125 | 26 | 169 | 0.0 | 0.0 | 0.00 | 0.00 | 0.00 | 90 | 1013.1 |
| 20260831084024 | 26 | 169 | 0.0 | 0.0 | 0.00 | 0.00 | 0.00 | 90 | 1013.2 |
| 20260831083924 | 26 | 169 | 0.0 | 0.0 | 0.00 | 0.00 | 0.00 | 90 | 1013.3 |
| 20260831083825 | 26 | 169 | 0.0 | 0.0 | 0.00 | 0.00 | 0.00 | 90 | 1013.1 |
| 20260831083724 | 26 | 169 | 0.0 | 0.0 | 0.00 | 0.00 | 0.00 | 90 | 1013.2 |
| 20260831083624 | 26 | 169 | 0.0 | 0.0 | 0.00 | 0.00 | 0.00 | 90 | 1013.2 |
| 20260831083525 | 26 | 169 | 0.0 | 0.0 | 0.00 | 0.00 | 0.00 | 90 | 1013.2 |
| 20260831083426 | 26 | 169 | 0.0 | 0.0 | 0.00 | 0.00 | 0.00 | 90 | 1013.2 |
| 20260831083324 | 26 | 169 | 0.0 | 0.0 | 0.00 | 0.00 | 0.00 | 90 | 1013.1 |
| 20260831083224 | 26 | 169 | 0.0 | 0.0 | 0.00 | 0.00 | 0.00 | 90 | 1013.2 |
| 20260831083125 | 26 | 169 | 0.0 | 0.0 | 0.00 | 0.00 | 0.00 | 90 | 1013.3 |
| 20260831083025 | 26 | 169 | 0.0 | 0.0 | 0.00 | 0.00 | 0.00 | 90 | 1013.3 |
| 20260831082924 | 26 | 169 | 0.0 | 0.0 | 0.00 | 0.00 | 0.00 | 90 | 1013.3 |
| 20260831082823 | 26 | 169 | 0.0 | 0.0 | 0.00 | 0.00 | 0.00 | 90 | 1013.3 |
| 20260831082720 | 26 | 169 | 0.0 | 0.0 | 0.00 | 0.00 | 0.00 | 90 | 1013.3 |
| 20260831082619 | 26 | 169 | 0.0 | 0.0 | 0.00 | 0.00 | 0.00 | 90 | 1013.2 |
| 20260831082518 | 26 | 169 | 0.0 | 0.0 | 0.00 | 0.00 | 0.00 | 89 | 1013.3 |
| 20260831082417 | 26 | 169 | 0.0 | 0.0 | 0.00 | 0.00 | 0.00 | 89 | 1013.3 |
| 20260831082314 | 26 | 169 | 0.0 | 0.0 | 0.00 | 0.00 | 0.00 | 89 | 1013.2 |
| 20260831082214 | 26 | 169 | 0.0 | 0.0 | 0.00 | 0.00 | 0.00 | 89 | 1013.3 |
| 20260831082112 | 26 | 169 | 0.0 | 0.0 | 0.00 | 0.00 | 0.00 | 89 | 1013.3 |
| 20260831082009 | 26 | 169 | 0.0 | 0.0 | 0.00 | 0.00 | 0.00 | 89 | 1013.2 |
| 20260831081910 | 26 | 169 | 0.0 | 0.0 | 0.00 | 0.00 | 0.00 | 89 | 1013.3 |
| 20260831081806 | 26 | 169 | 0.0 | 0.0 | 0.00 | 0.00 | 0.00 | 89 | 1013.4 |
| 20260831081704 | 26 | 169 | 0.0 | 0.0 | 0.00 | 0.00 | 0.00 | 89 | 1013.3 |
| 20260831081603 | 26 | 169 | 0.0 | 0.0 | 0.00 | 0.00 | 0.00 | 89 | 1013.4 |
| 20260831081502 | 26 | 169 | 0.0 | 0.0 | 0.00 | 0.00 | 0.00 | 89 | 1013.4 |
| 20260831081403 | 26 | 169 | 0.0 | 0.0 | 0.00 | 0.00 | 0.00 | 89 | 1013.3 |
| 20260831081303 | 26 | 169 | 0.0 | 0.0 | 0.00 | 0.00 | 0.00 | 89 | 1013.3 |
| 20260831081201 | 26 | 169 | 0.0 | 0.0 | 0.00 | 0.00 | 0.00 | 89 | 1013.4 |
| 20260831081103 | 26 | 169 | 0.0 | 0.0 | 0.00 | 0.00 | 0.00 | 89 | 1013.3 |
| 20260831081003 | 26 | 169 | 0.0 | 0.0 | 0.00 | 0.00 | 0.00 | 89 | 1013.4 |
| 20260831080902 | 26 | 169 | 0.0 | 0.0 | 0.00 | 0.00 | 0.00 | 89 | 1013.3 |
| 20260831080803 | 26 | 169 | 0.0 | 0.0 | 0.00 | 0.00 | 0.00 | 89 | 1013.4 |
| 20260831080702 | 26 | 169 | 0.0 | 0.0 | 0.00 | 0.00 | 0.00 | 89 | 1013.5 |
| 20260831080604 | 26 | 169 | 0.0 | 0.0 | 0.00 | 0.00 | 0.00 | 89 | 1013.4 |
| 20260831080503 | 26 | 169 | 0.0 | 0.0 | 0.00 | 0.00 | 0.00 | 89 | 1013.4 |
| 20260831080401 | 26 | 169 | 0.0 | 0.0 | 0.00 | 0.00 | 0.00 | 89 | 1013.4 |
| 20260831080303 | 26 | 169 | 0.0 | 0.0 | 0.00 | 0.00 | 0.00 | 89 | 1013.3 |
| 20260831080204 | 26 | 169 | 0.0 | 0.0 | 0.00 | 0.00 | 0.00 | 89 | 1013.4 |
| 20260831080003 | 26 | 169 | 0.0 | 0.0 | 0.00 | 0.00 | 0.00 | 89 | 1013.4 |
| 20260831075903 | 26 | 169 | 0.0 | 0.0 | 0.00 | 0.00 | 0.00 | 89 | 1013.4 |
| 20260831075802 | 26 | 169 | 0.0 | 0.0 | 0.00 | 0.00 | 0.00 | 88 | 1013.4 |
| 20260831075703 | 26 | 169 | 0.0 | 0.0 | 0.00 | 0.00 | 0.00 | 88 | 1013.4 |
| 20260831075603 | 26 | 169 | 0.0 | 0.0 | 0.00 | 0.00 | 0.00 | 88 | 1013.4 |
| 20260831075501 | 26 | 169 | 0.0 | 0.0 | 0.00 | 0.00 | 0.00 | 88 | 1013.4 |
| 20260831075402 | 26 | 169 | 0.0 | 0.0 | 0.00 | 0.00 | 0.00 | 88 | 1013.4 |
| 20260831075306 | 26 | 169 | 0.0 | 0.0 | 0.00 | 0.00 | 0.00 | 88 | 1013.4 |
| 20260831075203 | 27 | 169 | 0.0 | 0.0 | 0.00 | 0.00 | 0.00 | 88 | 1013.3 |
| 20260831075103 | 27 | 169 | 0.0 | 0.0 | 0.00 | 0.00 | 0.00 | 88 | 1013.4 |
| 20260831075004 | 27 | 169 | 0.0 | 0.0 | 0.00 | 0.00 | 0.00 | 88 | 1013.3 |
| 20260831074902 | 27 | 169 | 0.0 | 0.0 | 0.00 | 0.00 | 0.00 | 88 | 1013.4 |
| 20260831074802 | 27 | 169 | 0.0 | 0.0 | 0.00 | 0.00 | 0.00 | 88 | 1013.4 |
| 20260831074702 | 27 | 169 | 0.0 | 0.0 | 0.00 | 0.00 | 0.00 | 88 | 1013.3 |
| 20260831074603 | 27 | 169 | 0.0 | 0.0 | 0.00 | 0.00 | 0.00 | 88 | 1013.3 |
| 20260831074504 | 27 | 169 | 0.0 | 0.0 | 0.00 | 0.00 | 0.00 | 88 | 1013.4 |
| 20260831074401 | 27 | 169 | 0.0 | 0.0 | 0.00 | 0.00 | 0.00 | 87 | 1013.4 |
| 20260831074303 | 27 | 169 | 0.0 | 0.0 | 0.00 | 0.00 | 0.00 | 87 | 1013.4 |
| 20260831074202 | 27 | 169 | 0.0 | 1.6 | 0.00 | 0.00 | 0.00 | 87 | 1013.4 |
| 20260831074103 | 27 | 169 | 0.0 | 1.6 | 0.00 | 0.00 | 0.00 | 87 | 1013.4 |
| 20260831074002 | 27 | 169 | 0.0 | 1.6 | 0.00 | 0.00 | 0.00 | 86 | 1013.4 |
| 20260831073903 | 27 | 169 | 0.0 | 1.6 | 0.00 | 0.00 | 0.00 | 86 | 1013.5 |
| 20260831073802 | 27 | 169 | 0.0 | 3.2 | 0.00 | 0.00 | 0.00 | 86 | 1013.5 |
| 20260831073702 | 27 | 169 | 0.0 | 3.2 | 0.00 | 0.00 | 0.00 | 86 | 1013.5 |
| 20260831073604 | 27 | 169 | 0.0 | 3.2 | 0.00 | 0.00 | 0.00 | 86 | 1013.5 |
| 20260831073504 | 27 | 169 | 0.0 | 3.2 | 0.00 | 0.00 | 0.00 | 86 | 1013.4 |
| 20260831073402 | 27 | 169 | 0.0 | 3.2 | 0.00 | 0.00 | 0.00 | 86 | 1013.5 |
| 20260831073302 | 27 | 169 | 0.0 | 3.2 | 0.00 | 0.00 | 0.00 | 86 | 1013.5 |
| 20260831073203 | 27 | 169 | 0.0 | 3.2 | 0.00 | 0.00 | 0.00 | 86 | 1013.4 |
| 20260831073102 | 27 | 169 | 0.0 | 3.2 | 0.00 | 0.00 | 0.00 | 86 | 1013.4 |
| 20260831073004 | 27 | 62 | 0.0 | 3.2 | 0.00 | 0.00 | 0.00 | 86 | 1013.4 |
| 20260831072903 | 27 | 59 | 1.6 | 4.8 | 0.00 | 0.00 | 0.00 | 86 | 1013.4 |
| 20260831072802 | 27 | 59 | 1.6 | 4.8 | 0.00 | 0.00 | 0.00 | 86 | 1013.5 |
| 20260831072702 | 27 | 59 | 1.6 | 4.8 | 0.00 | 0.00 | 0.00 | 86 | 1013.3 |
| 20260831072603 | 27 | 58 | 0.0 | 4.8 | 0.00 | 0.00 | 0.00 | 86 | 1013.3 |
| 20260831072503 | 27 | 59 | 1.6 | 4.8 | 0.00 | 0.00 | 0.00 | 86 | 1013.4 |
| 20260831072403 | 27 | 59 | 1.6 | 4.8 | 0.00 | 0.00 | 0.00 | 86 | 1013.4 |
| 20260831072306 | 27 | 59 | 1.6 | 4.8 | 0.00 | 0.00 | 0.00 | 86 | 1013.4 |
| 20260831072203 | 27 | 59 | 1.6 | 4.8 | 0.00 | 0.00 | 0.00 | 86 | 1013.4 |
| 20260831072102 | 27 | 61 | 1.6 | 4.8 | 0.00 | 0.00 | 0.00 | 86 | 1013.4 |
| 20260831072003 | 27 | 58 | 1.6 | 4.8 | 0.00 | 0.00 | 0.00 | 86 | 1013.5 |
| 20260831071902 | 27 | 56 | 1.6 | 4.8 | 0.00 | 0.00 | 0.00 | 86 | 1013.5 |
| 20260831071803 | 27 | 56 | 1.6 | 4.8 | 0.00 | 0.00 | 0.00 | 86 | 1013.4 |
| 20260831071702 | 27 | 56 | 1.6 | 4.8 | 0.00 | 0.00 | 0.00 | 86 | 1013.4 |
| 20260831071602 | 27 | 58 | 1.6 | 6.4 | 0.00 | 0.00 | 0.00 | 86 | 1013.4 |
| 20260831071503 | 27 | 58 | 0.0 | 6.4 | 0.00 | 0.00 | 0.00 | 86 | 1013.4 |
| 20260831071403 | 27 | 62 | 0.0 | 6.4 | 0.00 | 0.00 | 0.00 | 86 | 1013.5 |
| 20260831071302 | 27 | 61 | 1.6 | 6.4 | 0.00 | 0.00 | 0.00 | 86 | 1013.4 |
| 20260831071204 | 27 | 62 | 0.0 | 6.4 | 0.00 | 0.00 | 0.00 | 86 | 1013.4 |
| 20260831071103 | 27 | 55 | 0.0 | 6.4 | 0.00 | 0.00 | 0.00 | 86 | 1013.4 |
| 20260831071003 | 27 | 54 | 0.0 | 6.4 | 0.00 | 0.00 | 0.00 | 86 | 1013.4 |
| 20260831070904 | 27 | 54 | 1.6 | 6.4 | 0.00 | 0.00 | 0.00 | 86 | 1013.4 |
| 20260831070803 | 27 | 63 | 1.6 | 6.4 | 0.00 | 0.00 | 0.00 | 86 | 1013.3 |
| 20260831070702 | 27 | 0 | 1.6 | 6.4 | 0.00 | 0.00 | 0.00 | 86 | 1013.4 |
| 20260831070601 | 27 | 56 | 0.0 | 0.0 | 0.00 | 0.00 | 0.00 | 87 | 1013.4 |
| 20260831070505 | 27 | 71 | 0.0 | 0.0 | 0.00 | 0.00 | 0.00 | 87 | 1013.4 |
| 20260831070403 | 27 | 72 | 0.0 | 0.0 | 0.00 | 0.00 | 0.00 | 87 | 1013.4 |
| 20260831070301 | 27 | 58 | 0.0 | 0.0 | 0.00 | 0.00 | 0.00 | 87 | 1013.3 |
| 20260831070202 | 27 | 55 | 0.0 | 0.0 | 0.00 | 0.00 | 0.00 | 87 | 1013.4 |
| 20260831070001 | 27 | 55 | 0.0 | 0.0 | 0.00 | 0.00 | 0.00 | 87 | 1013.4 |
| 20260831065901 | 27 | 55 | 0.0 | 0.0 | 0.00 | 0.00 | 0.00 | 87 | 1013.4 |
| 20260831065804 | 27 | 56 | 0.0 | 0.0 | 0.00 | 0.00 | 0.00 | 87 | 1013.5 |
| 20260831065702 | 27 | 56 | 0.0 | 0.0 | 0.00 | 0.00 | 0.00 | 87 | 1013.4 |
| 20260831065602 | 27 | 55 | 0.0 | 0.0 | 0.00 | 0.00 | 0.00 | 87 | 1013.4 |
| 20260831065504 | 27 | 148 | 0.0 | 0.0 | 0.00 | 0.00 | 0.00 | 86 | 1013.5 |
| 20260831065403 | 27 | 152 | 0.0 | 0.0 | 0.00 | 0.00 | 0.00 | 87 | 1013.4 |
| 20260831065306 | 27 | 152 | 0.0 | 0.0 | 0.00 | 0.00 | 0.00 | 87 | 1013.5 |
| 20260831065204 | 27 | 154 | 0.0 | 0.0 | 0.00 | 0.00 | 0.00 | 87 | 1013.4 |
| 20260831065104 | 27 | 154 | 0.0 | 0.0 | 0.00 | 0.00 | 0.00 | 86 | 1013.5 |
| 20260831065001 | 27 | 154 | 0.0 | 0.0 | 0.00 | 0.00 | 0.00 | 86 | 1013.5 |
| 20260831064901 | 27 | 154 | 0.0 | 0.0 | 0.00 | 0.00 | 0.00 | 86 | 1013.6 |
| 20260831064803 | 27 | 149 | 0.0 | 3.2 | 0.00 | 0.00 | 0.00 | 86 | 1013.5 |
| 20260831064703 | 27 | 149 | 0.0 | 3.2 | 0.00 | 0.00 | 0.00 | 86 | 1013.6 |
| 20260831064602 | 27 | 151 | 0.0 | 3.2 | 0.00 | 0.00 | 0.00 | 86 | 1013.5 |
| 20260831064502 | 27 | 157 | 0.0 | 3.2 | 0.00 | 0.00 | 0.00 | 86 | 1013.6 |
| 20260831064403 | 27 | 158 | 0.0 | 3.2 | 0.00 | 0.00 | 0.00 | 86 | 1013.6 |
| 20260831064302 | 27 | 158 | 0.0 | 3.2 | 0.00 | 0.00 | 0.00 | 86 | 1013.5 |
| 20260831064202 | 27 | 158 | 0.0 | 3.2 | 0.00 | 0.00 | 0.00 | 86 | 1013.5 |
| 20260831064104 | 27 | 158 | 0.0 | 3.2 | 0.00 | 0.00 | 0.00 | 86 | 1013.5 |
| 20260831064003 | 27 | 157 | 0.0 | 3.2 | 0.00 | 0.00 | 0.00 | 86 | 1013.6 |
| 20260831063903 | 27 | 157 | 1.6 | 3.2 | 0.00 | 0.00 | 0.00 | 86 | 1013.6 |
| 20260831063802 | 27 | 157 | 0.0 | 4.8 | 0.00 | 0.00 | 0.00 | 85 | 1013.6 |
| 20260831063702 | 27 | 138 | 1.6 | 6.4 | 0.00 | 0.00 | 0.00 | 85 | 1013.6 |
| 20260831063603 | 27 | 161 | 0.0 | 6.4 | 0.00 | 0.00 | 0.00 | 85 | 1013.7 |
| 20260831063502 | 27 | 162 | 0.0 | 6.4 | 0.00 | 0.00 | 0.00 | 85 | 1013.7 |
| 20260831063403 | 27 | 164 | 0.0 | 6.4 | 0.00 | 0.00 | 0.00 | 85 | 1013.6 |
| 20260831063302 | 27 | 164 | 1.6 | 6.4 | 0.00 | 0.00 | 0.00 | 85 | 1013.6 |
| 20260831063202 | 27 | 164 | 0.0 | 6.4 | 0.00 | 0.00 | 0.00 | 85 | 1013.6 |
| 20260831063103 | 27 | 164 | 0.0 | 6.4 | 0.00 | 0.00 | 0.00 | 85 | 1013.6 |
| 20260831063003 | 27 | 164 | 1.6 | 6.4 | 0.00 | 0.00 | 0.00 | 85 | 1013.5 |
| 20260831062903 | 27 | 164 | 3.2 | 6.4 | 0.00 | 0.00 | 0.00 | 85 | 1013.6 |
| 20260831062802 | 27 | 172 | 3.2 | 8.0 | 0.00 | 0.00 | 0.00 | 85 | 1013.6 |
| 20260831062703 | 27 | 175 | 0.0 | 8.0 | 0.00 | 0.00 | 0.00 | 85 | 1013.6 |
| 20260831062602 | 27 | 169 | 1.6 | 8.0 | 0.00 | 0.00 | 0.00 | 85 | 1013.6 |
| 20260831062502 | 27 | 171 | 3.2 | 8.0 | 0.00 | 0.00 | 0.00 | 85 | 1013.6 |
| 20260831062403 | 28 | 176 | 3.2 | 8.0 | 0.00 | 0.00 | 0.00 | 84 | 1013.5 |
| 20260831062305 | 28 | 171 | 3.2 | 8.0 | 0.00 | 0.00 | 0.00 | 84 | 1013.6 |
| 20260831062202 | 28 | 172 | 3.2 | 8.0 | 0.00 | 0.00 | 0.00 | 84 | 1013.6 |
| 20260831062102 | 28 | 173 | 4.8 | 8.0 | 0.00 | 0.00 | 0.00 | 84 | 1013.5 |
| 20260831062004 | 28 | 182 | 4.8 | 8.0 | 0.00 | 0.00 | 0.00 | 84 | 1013.6 |
| 20260831061902 | 28 | 173 | 4.8 | 8.0 | 0.00 | 0.00 | 0.00 | 84 | 1013.6 |
| 20260831061803 | 28 | 186 | 4.8 | 8.0 | 0.00 | 0.00 | 0.00 | 84 | 1013.6 |
| 20260831061703 | 28 | 182 | 3.2 | 8.0 | 0.00 | 0.00 | 0.00 | 84 | 1013.6 |
| 20260831061603 | 28 | 179 | 3.2 | 8.0 | 0.00 | 0.00 | 0.00 | 84 | 1013.6 |
| 20260831061503 | 28 | 159 | 3.2 | 8.0 | 0.00 | 0.00 | 0.00 | 84 | 1013.6 |
| 20260831061404 | 28 | 175 | 3.2 | 8.0 | 0.00 | 0.00 | 0.00 | 84 | 1013.5 |
| 20260831061302 | 28 | 183 | 3.2 | 8.0 | 0.00 | 0.00 | 0.00 | 84 | 1013.5 |
| 20260831061202 | 28 | 172 | 3.2 | 8.0 | 0.00 | 0.00 | 0.00 | 84 | 1013.6 |
| 20260831061102 | 28 | 168 | 3.2 | 8.0 | 0.00 | 0.00 | 0.00 | 84 | 1013.5 |
| 20260831061003 | 28 | 168 | 3.2 | 8.0 | 0.00 | 0.00 | 0.00 | 84 | 1013.5 |
| 20260831060902 | 28 | 196 | 3.2 | 8.0 | 0.00 | 0.00 | 0.00 | 84 | 1013.6 |
| 20260831060800 | 28 | 169 | 4.8 | 8.0 | 0.00 | 0.00 | 0.00 | 84 | 1013.6 |
| 20260831060659 | 28 | 165 | 3.2 | 8.0 | 0.00 | 0.00 | 0.00 | 84 | 1013.5 |
| 20260831060556 | 28 | 188 | 3.2 | 8.0 | 0.00 | 0.00 | 0.00 | 84 | 1013.6 |
| 20260831060455 | 28 | 179 | 3.2 | 8.0 | 0.00 | 0.00 | 0.00 | 84 | 1013.6 |
| 20260831060354 | 28 | 183 | 3.2 | 8.0 | 0.00 | 0.00 | 0.00 | 84 | 1013.6 |
| 20260831060252 | 28 | 169 | 3.2 | 8.0 | 0.00 | 0.00 | 0.00 | 84 | 1013.5 |
| 20260831060151 | 28 | 200 | 3.2 | 8.0 | 0.00 | 0.00 | 0.00 | 84 | 1013.6 |
| 20260831060051 | 28 | 188 | 3.2 | 8.0 | 0.00 | 0.00 | 0.00 | 84 | 1013.6 |
| 20260831055949 | 28 | 162 | 3.2 | 8.0 | 0.00 | 0.00 | 0.00 | 84 | 1013.5 |
| 20260831055846 | 28 | 172 | 3.2 | 8.0 | 0.00 | 0.00 | 0.00 | 84 | 1013.6 |
| 20260831055745 | 28 | 172 | 3.2 | 8.0 | 0.00 | 0.00 | 0.00 | 84 | 1013.5 |
| 20260831055643 | 28 | 165 | 3.2 | 8.0 | 0.00 | 0.00 | 0.00 | 84 | 1013.6 |
| 20260831055542 | 28 | 180 | 1.6 | 6.4 | 0.00 | 0.00 | 0.00 | 84 | 1013.6 |
| 20260831055442 | 28 | 158 | 3.2 | 6.4 | 0.00 | 0.00 | 0.00 | 84 | 1013.7 |
| 20260831055340 | 28 | 159 | 4.8 | 6.4 | 0.00 | 0.00 | 0.00 | 84 | 1013.6 |
| 20260831055238 | 28 | 169 | 4.8 | 6.4 | 0.00 | 0.00 | 0.00 | 84 | 1013.6 |
| 20260831055137 | 28 | 155 | 3.2 | 6.4 | 0.00 | 0.00 | 0.00 | 84 | 1013.6 |
| 20260831055035 | 28 | 173 | 3.2 | 6.4 | 0.00 | 0.00 | 0.00 | 84 | 1013.6 |
| 20260831054933 | 28 | 178 | 1.6 | 6.4 | 0.00 | 0.00 | 0.00 | 84 | 1013.6 |
| 20260831054831 | 28 | 185 | 3.2 | 6.4 | 0.00 | 0.00 | 0.00 | 84 | 1013.6 |
| 20260831054731 | 28 | 183 | 3.2 | 6.4 | 0.00 | 0.00 | 0.00 | 84 | 1013.6 |
| 20260831054631 | 28 | 178 | 3.2 | 6.4 | 0.00 | 0.00 | 0.00 | 84 | 1013.6 |
| 20260831054532 | 28 | 175 | 3.2 | 6.4 | 0.00 | 0.00 | 0.00 | 84 | 1013.6 |
| 20260831054431 | 28 | 173 | 3.2 | 6.4 | 0.00 | 0.00 | 0.00 | 84 | 1013.6 |
| 20260831054332 | 28 | 165 | 3.2 | 6.4 | 0.00 | 0.00 | 0.00 | 84 | 1013.6 |
| 20260831054234 | 28 | 173 | 3.2 | 6.4 | 0.00 | 0.00 | 0.00 | 84 | 1013.6 |
| 20260831054131 | 28 | 180 | 3.2 | 6.4 | 0.00 | 0.00 | 0.00 | 84 | 1013.7 |
| 20260831054032 | 28 | 183 | 3.2 | 6.4 | 0.00 | 0.00 | 0.00 | 84 | 1013.7 |
| 20260831053931 | 28 | 180 | 3.2 | 6.4 | 0.00 | 0.00 | 0.00 | 84 | 1013.7 |
| 20260831053833 | 28 | 185 | 3.2 | 6.4 | 0.00 | 0.00 | 0.00 | 84 | 1013.7 |
| 20260831053731 | 28 | 144 | 1.6 | 6.4 | 0.00 | 0.00 | 0.00 | 84 | 1013.6 |
| 20260831053632 | 28 | 141 | 1.6 | 6.4 | 0.00 | 0.00 | 0.00 | 84 | 1013.6 |
| 20260831053533 | 28 | 138 | 1.6 | 6.4 | 0.00 | 0.00 | 0.00 | 84 | 1013.7 |
| 20260831053432 | 28 | 135 | 3.2 | 6.4 | 0.00 | 0.00 | 0.00 | 85 | 1013.7 |
| 20260831053331 | 27 | 142 | 3.2 | 6.4 | 0.00 | 0.00 | 0.00 | 84 | 1013.6 |
| 20260831053228 | 27 | 173 | 3.2 | 4.8 | 0.00 | 0.00 | 0.00 | 84 | 1013.7 |
| 20260831053125 | 27 | 169 | 3.2 | 4.8 | 0.00 | 0.00 | 0.00 | 84 | 1013.6 |
| 20260831053026 | 27 | 118 | 3.2 | 4.8 | 0.00 | 0.00 | 0.00 | 84 | 1013.6 |
| 20260831052925 | 27 | 124 | 1.6 | 8.0 | 0.00 | 0.00 | 0.00 | 84 | 1013.6 |
| 20260831052822 | 27 | 123 | 1.6 | 8.0 | 0.00 | 0.00 | 0.00 | 84 | 1013.6 |
| 20260831052721 | 28 | 118 | 1.6 | 8.0 | 0.00 | 0.00 | 0.00 | 84 | 1013.6 |
| 20260831052620 | 28 | 138 | 1.6 | 8.0 | 0.00 | 0.00 | 0.00 | 84 | 1013.5 |
| 20260831052520 | 28 | 141 | 0.0 | 8.0 | 0.00 | 0.00 | 0.00 | 84 | 1013.5 |
| 20260831052420 | 28 | 142 | 0.0 | 8.0 | 0.00 | 0.00 | 0.00 | 84 | 1013.6 |
| 20260831052320 | 28 | 142 | 1.6 | 8.0 | 0.00 | 0.00 | 0.00 | 84 | 1013.5 |
| 20260831052221 | 28 | 144 | 1.6 | 8.0 | 0.00 | 0.00 | 0.00 | 84 | 1013.5 |
| 20260831052120 | 28 | 147 | 3.2 | 8.0 | 0.00 | 0.00 | 0.00 | 84 | 1013.6 |
| 20260831052020 | 28 | 176 | 1.6 | 8.0 | 0.00 | 0.00 | 0.00 | 84 | 1013.5 |
| 20260831051919 | 28 | 147 | 1.6 | 8.0 | 0.00 | 0.00 | 0.00 | 84 | 1013.6 |
| 20260831051819 | 28 | 151 | 3.2 | 8.0 | 0.00 | 0.00 | 0.00 | 84 | 1013.5 |
| 20260831051721 | 28 | 147 | 3.2 | 8.0 | 0.00 | 0.00 | 0.00 | 84 | 1013.5 |
| 20260831051621 | 28 | 149 | 3.2 | 8.0 | 0.00 | 0.00 | 0.00 | 84 | 1013.5 |
| 20260831051519 | 28 | 131 | 3.2 | 8.0 | 0.00 | 0.00 | 0.00 | 84 | 1013.5 |
| 20260831051419 | 28 | 183 | 1.6 | 8.0 | 0.00 | 0.00 | 0.00 | 84 | 1013.5 |
| 20260831051321 | 28 | 135 | 1.6 | 6.4 | 0.00 | 0.00 | 0.00 | 84 | 1013.5 |
| 20260831051220 | 28 | 134 | 3.2 | 6.4 | 0.00 | 0.00 | 0.00 | 84 | 1013.4 |
| 20260831051119 | 28 | 131 | 3.2 | 6.4 | 0.00 | 0.00 | 0.00 | 84 | 1013.4 |
| 20260831051020 | 28 | 140 | 3.2 | 6.4 | 0.00 | 0.00 | 0.00 | 84 | 1013.5 |
| 20260831050921 | 28 | 121 | 3.2 | 6.4 | 0.00 | 0.00 | 0.00 | 84 | 1013.5 |
| 20260831050819 | 28 | 107 | 3.2 | 6.4 | 0.00 | 0.00 | 0.00 | 84 | 1013.5 |
| 20260831050719 | 28 | 148 | 3.2 | 6.4 | 0.00 | 0.00 | 0.00 | 84 | 1013.4 |
| 20260831050621 | 28 | 131 | 3.2 | 6.4 | 0.00 | 0.00 | 0.00 | 84 | 1013.4 |
| 20260831050519 | 28 | 148 | 3.2 | 6.4 | 0.00 | 0.00 | 0.00 | 84 | 1013.4 |
| 20260831050419 | 28 | 138 | 3.2 | 6.4 | 0.00 | 0.00 | 0.00 | 84 | 1013.4 |
| 20260831050320 | 28 | 140 | 1.6 | 6.4 | 0.00 | 0.00 | 0.00 | 84 | 1013.4 |
| 20260831050222 | 28 | 140 | 1.6 | 4.8 | 0.00 | 0.00 | 0.00 | 84 | 1013.4 |
| 20260831050119 | 28 | 124 | 1.6 | 4.8 | 0.00 | 0.00 | 0.00 | 84 | 1013.4 |
| 20260831050019 | 28 | 121 | 1.6 | 8.0 | 0.00 | 0.00 | 0.00 | 84 | 1013.3 |
| 20260831045919 | 28 | 121 | 1.6 | 8.0 | 0.00 | 0.00 | 0.00 | 83 | 1013.3 |
| 20260831045820 | 28 | 141 | 0.0 | 8.0 | 0.00 | 0.00 | 0.00 | 83 | 1013.4 |
| 20260831045719 | 28 | 144 | 0.0 | 8.0 | 0.00 | 0.00 | 0.00 | 83 | 1013.4 |
| 20260831045619 | 28 | 145 | 0.0 | 8.0 | 0.00 | 0.00 | 0.00 | 83 | 1013.4 |
| 20260831045518 | 28 | 145 | 0.0 | 8.0 | 0.00 | 0.00 | 0.00 | 83 | 1013.5 |
| 20260831045418 | 28 | 171 | 0.0 | 8.0 | 0.00 | 0.00 | 0.00 | 83 | 1013.4 |
| 20260831045320 | 28 | 173 | 0.0 | 8.0 | 0.00 | 0.00 | 0.00 | 83 | 1013.4 |
| 20260831045219 | 28 | 176 | 3.2 | 8.0 | 0.00 | 0.00 | 0.00 | 83 | 1013.4 |
| 20260831045119 | 28 | 183 | 3.2 | 8.0 | 0.00 | 0.00 | 0.00 | 83 | 1013.4 |
| 20260831045018 | 28 | 138 | 0.0 | 4.8 | 0.00 | 0.00 | 0.00 | 83 | 1013.4 |
| 20260831044919 | 28 | 161 | 0.0 | 4.8 | 0.00 | 0.00 | 0.00 | 83 | 1013.3 |
| 20260831044819 | 28 | 161 | 1.6 | 4.8 | 0.00 | 0.00 | 0.00 | 83 | 1013.4 |
| 20260831044720 | 28 | 161 | 1.6 | 4.8 | 0.00 | 0.00 | 0.00 | 82 | 1013.4 |
| 20260831044620 | 28 | 148 | 0.0 | 4.8 | 0.00 | 0.00 | 0.00 | 82 | 1013.4 |
| 20260831044519 | 28 | 157 | 1.6 | 4.8 | 0.00 | 0.00 | 0.00 | 82 | 1013.4 |
| 20260831044418 | 28 | 158 | 1.6 | 6.4 | 0.00 | 0.00 | 0.00 | 82 | 1013.4 |
| 20260831044319 | 28 | 137 | 0.0 | 9.7 | 0.00 | 0.00 | 0.00 | 82 | 1013.4 |
| 20260831044219 | 28 | 137 | 1.6 | 11.3 | 0.00 | 0.00 | 0.00 | 82 | 1013.4 |
| 20260831044119 | 28 | 147 | 1.6 | 11.3 | 0.00 | 0.00 | 0.00 | 82 | 1013.4 |
| 20260831044019 | 28 | 135 | 1.6 | 11.3 | 0.00 | 0.00 | 0.00 | 82 | 1013.4 |
| 20260831043919 | 28 | 94 | 1.6 | 11.3 | 0.00 | 0.00 | 0.00 | 82 | 1013.3 |
| 20260831043819 | 28 | 94 | 1.6 | 11.3 | 0.00 | 0.00 | 0.00 | 82 | 1013.3 |
| 20260831043719 | 28 | 76 | 1.6 | 11.3 | 0.00 | 0.00 | 0.00 | 82 | 1013.4 |
| 20260831043620 | 28 | 72 | 3.2 | 11.3 | 0.00 | 0.00 | 0.00 | 82 | 1013.3 |
| 20260831043519 | 28 | 113 | 3.2 | 11.3 | 0.00 | 0.00 | 0.00 | 82 | 1013.3 |
| 20260831043418 | 28 | 164 | 4.8 | 11.3 | 0.00 | 0.00 | 0.00 | 82 | 1013.3 |
| 20260831043318 | 28 | 152 | 6.4 | 11.3 | 0.00 | 0.00 | 0.00 | 82 | 1013.2 |
| 20260831043218 | 28 | 125 | 4.8 | 9.7 | 0.00 | 0.00 | 0.00 | 82 | 1013.1 |
| 20260831043118 | 28 | 134 | 3.2 | 9.7 | 0.00 | 0.00 | 0.00 | 82 | 1013.3 |
| 20260831043018 | 28 | 192 | 3.2 | 9.7 | 0.00 | 0.00 | 0.00 | 82 | 1013.3 |
| 20260831042918 | 28 | 169 | 4.8 | 9.7 | 0.00 | 0.00 | 0.00 | 82 | 1013.2 |
| 20260831042819 | 28 | 200 | 3.2 | 9.7 | 0.00 | 0.00 | 0.00 | 82 | 1013.3 |
| 20260831042718 | 28 | 178 | 3.2 | 9.7 | 0.00 | 0.00 | 0.00 | 82 | 1013.3 |
| 20260831042619 | 28 | 134 | 4.8 | 9.7 | 0.00 | 0.00 | 0.00 | 82 | 1013.3 |
| 20260831042519 | 28 | 180 | 4.8 | 9.7 | 0.00 | 0.00 | 0.00 | 81 | 1013.3 |
| 20260831042418 | 28 | 127 | 4.8 | 9.7 | 0.00 | 0.00 | 0.00 | 81 | 1013.3 |
| 20260831042319 | 28 | 147 | 3.2 | 8.0 | 0.00 | 0.00 | 0.00 | 81 | 1013.2 |
| 20260831042218 | 28 | 171 | 3.2 | 8.0 | 0.00 | 0.00 | 0.00 | 81 | 1013.3 |
| 20260831042119 | 28 | 109 | 3.2 | 9.7 | 0.00 | 0.00 | 0.00 | 81 | 1013.2 |
| 20260831042018 | 28 | 185 | 3.2 | 9.7 | 0.00 | 0.00 | 0.00 | 81 | 1013.2 |
| 20260831041918 | 28 | 176 | 4.8 | 9.7 | 0.00 | 0.00 | 0.00 | 81 | 1013.2 |
| 20260831041819 | 28 | 165 | 4.8 | 9.7 | 0.00 | 0.00 | 0.00 | 81 | 1013.1 |
| 20260831041719 | 28 | 157 | 4.8 | 9.7 | 0.00 | 0.00 | 0.00 | 81 | 1013.2 |
| 20260831041618 | 28 | 151 | 6.4 | 9.7 | 0.00 | 0.00 | 0.00 | 81 | 1013.2 |
| 20260831041519 | 28 | 165 | 4.8 | 9.7 | 0.00 | 0.00 | 0.00 | 81 | 1013.2 |
| 20260831041420 | 28 | 116 | 3.2 | 9.7 | 0.00 | 0.00 | 0.00 | 81 | 1013.2 |
| 20260831041318 | 28 | 135 | 3.2 | 9.7 | 0.00 | 0.00 | 0.00 | 81 | 1013.2 |
| 20260831041219 | 28 | 172 | 4.8 | 9.7 | 0.00 | 0.00 | 0.00 | 81 | 1013.2 |
| 20260831041119 | 28 | 127 | 4.8 | 9.7 | 0.00 | 0.00 | 0.00 | 81 | 1013.2 |
| 20260831041019 | 28 | 176 | 4.8 | 9.7 | 0.00 | 0.00 | 0.00 | 81 | 1013.2 |
| 20260831040918 | 28 | 104 | 4.8 | 9.7 | 0.00 | 0.00 | 0.00 | 81 | 1013.2 |
| 20260831040819 | 28 | 125 | 4.8 | 9.7 | 0.00 | 0.00 | 0.00 | 80 | 1013.2 |
| 20260831040719 | 28 | 168 | 3.2 | 8.0 | 0.00 | 0.00 | 0.00 | 80 | 1013.2 |
| 20260831040617 | 28 | 245 | 3.2 | 9.7 | 0.00 | 0.00 | 0.00 | 80 | 1013.1 |
| 20260831040518 | 28 | 148 | 3.2 | 9.7 | 0.00 | 0.00 | 0.00 | 80 | 1013.2 |
| 20260831040419 | 28 | 162 | 1.6 | 9.7 | 0.00 | 0.00 | 0.00 | 80 | 1013.1 |
| 20260831040318 | 28 | 128 | 1.6 | 9.7 | 0.00 | 0.00 | 0.00 | 80 | 1013.2 |
| 20260831040217 | 28 | 120 | 1.6 | 9.7 | 0.00 | 0.00 | 0.00 | 80 | 1013.1 |
| 20260831040118 | 28 | 118 | 3.2 | 9.7 | 0.00 | 0.00 | 0.00 | 80 | 1013.1 |
| 20260831040020 | 28 | 197 | 4.8 | 9.7 | 0.00 | 0.00 | 0.00 | 80 | 1013.1 |
| 20260831035917 | 28 | 141 | 4.8 | 9.7 | 0.00 | 0.00 | 0.00 | 80 | 1013.1 |
| 20260831035818 | 28 | 180 | 4.8 | 9.7 | 0.00 | 0.00 | 0.00 | 80 | 1013.1 |
| 20260831035719 | 28 | 169 | 3.2 | 9.7 | 0.00 | 0.00 | 0.00 | 80 | 1013.1 |
| 20260831035618 | 28 | 165 | 3.2 | 8.0 | 0.00 | 0.00 | 0.00 | 80 | 1013.1 |
| 20260831035518 | 28 | 195 | 1.6 | 8.0 | 0.00 | 0.00 | 0.00 | 80 | 1013.1 |
| 20260831035417 | 28 | 152 | 1.6 | 8.0 | 0.00 | 0.00 | 0.00 | 80 | 1013.1 |
| 20260831035317 | 28 | 183 | 3.2 | 8.0 | 0.00 | 0.00 | 0.00 | 79 | 1013.1 |
| 20260831035218 | 28 | 147 | 3.2 | 8.0 | 0.00 | 0.00 | 0.00 | 79 | 1013.1 |
| 20260831035118 | 28 | 135 | 3.2 | 8.0 | 0.00 | 0.00 | 0.00 | 79 | 1013.1 |
| 20260831035018 | 28 | 110 | 4.8 | 8.0 | 0.00 | 0.00 | 0.00 | 79 | 1013.0 |
| 20260831034918 | 28 | 195 | 4.8 | 8.0 | 0.00 | 0.00 | 0.00 | 79 | 1013.0 |
| 20260831034818 | 28 | 145 | 3.2 | 8.0 | 0.00 | 0.00 | 0.00 | 79 | 1013.0 |
| 20260831034718 | 28 | 186 | 3.2 | 8.0 | 0.00 | 0.00 | 0.00 | 79 | 1012.9 |
| 20260831034617 | 28 | 165 | 1.6 | 8.0 | 0.00 | 0.00 | 0.00 | 79 | 1013.0 |
| 20260831034519 | 28 | 116 | 1.6 | 6.4 | 0.00 | 0.00 | 0.00 | 79 | 1013.0 |
| 20260831034418 | 28 | 188 | 3.2 | 6.4 | 0.00 | 0.00 | 0.00 | 79 | 1013.0 |
| 20260831034319 | 28 | 190 | 1.6 | 6.4 | 0.00 | 0.00 | 0.00 | 79 | 1012.9 |
| 20260831034218 | 28 | 128 | 0.0 | 6.4 | 0.00 | 0.00 | 0.00 | 79 | 1013.0 |
| 20260831034117 | 28 | 140 | 0.0 | 6.4 | 0.00 | 0.00 | 0.00 | 79 | 1013.0 |
| 20260831034019 | 28 | 140 | 1.6 | 6.4 | 0.00 | 0.00 | 0.00 | 79 | 1013.0 |
| 20260831033918 | 28 | 138 | 1.6 | 6.4 | 0.00 | 0.00 | 0.00 | 79 | 1013.0 |
| 20260831033817 | 28 | 176 | 3.2 | 6.4 | 0.00 | 0.00 | 0.00 | 79 | 1012.9 |
| 20260831033717 | 28 | 166 | 0.0 | 6.4 | 0.00 | 0.00 | 0.00 | 79 | 1013.0 |
| 20260831033619 | 28 | 166 | 0.0 | 6.4 | 0.00 | 0.00 | 0.00 | 79 | 1013.0 |
| 20260831033517 | 28 | 166 | 0.0 | 6.4 | 0.00 | 0.00 | 0.00 | 79 | 1013.0 |
| 20260831033416 | 28 | 166 | 0.0 | 6.4 | 0.00 | 0.00 | 0.00 | 79 | 1013.0 |
| 20260831033318 | 28 | 168 | 0.0 | 6.4 | 0.00 | 0.00 | 0.00 | 78 | 1012.9 |
| 20260831033216 | 28 | 168 | 1.6 | 6.4 | 0.00 | 0.00 | 0.00 | 78 | 1012.9 |
| 20260831033118 | 28 | 171 | 3.2 | 6.4 | 0.00 | 0.00 | 0.00 | 78 | 1012.9 |
| 20260831033017 | 29 | 171 | 3.2 | 6.4 | 0.00 | 0.00 | 0.00 | 78 | 1012.9 |
| 20260831032919 | 29 | 100 | 1.6 | 9.7 | 0.00 | 0.00 | 0.00 | 78 | 1013.0 |
| 20260831032816 | 29 | 148 | 1.6 | 9.7 | 0.00 | 0.00 | 0.00 | 78 | 1012.9 |
| 20260831032717 | 29 | 149 | 3.2 | 9.7 | 0.00 | 0.00 | 0.00 | 78 | 1013.0 |
| 20260831032618 | 29 | 162 | 3.2 | 9.7 | 0.00 | 0.00 | 0.00 | 78 | 1012.9 |
| 20260831032516 | 29 | 168 | 3.2 | 9.7 | 0.00 | 0.00 | 0.00 | 78 | 1013.0 |
| 20260831032417 | 29 | 145 | 1.6 | 9.7 | 0.00 | 0.00 | 0.00 | 78 | 1012.9 |
| 20260831032316 | 29 | 142 | 1.6 | 9.7 | 0.00 | 0.00 | 0.00 | 78 | 1012.9 |
| 20260831032218 | 29 | 154 | 3.2 | 9.7 | 0.00 | 0.00 | 0.00 | 78 | 1012.8 |
| 20260831032117 | 29 | 173 | 3.2 | 9.7 | 0.00 | 0.00 | 0.00 | 78 | 1012.9 |
| 20260831032017 | 29 | 158 | 3.2 | 9.7 | 0.00 | 0.00 | 0.00 | 78 | 1012.8 |
| 20260831031919 | 29 | 141 | 3.2 | 9.7 | 0.00 | 0.00 | 0.00 | 78 | 1012.9 |
| 20260831031817 | 29 | 154 | 4.8 | 9.7 | 0.00 | 0.00 | 0.00 | 77 | 1012.8 |
| 20260831031719 | 29 | 147 | 3.2 | 9.7 | 0.00 | 0.00 | 0.00 | 77 | 1012.8 |
| 20260831031619 | 29 | 93 | 3.2 | 9.7 | 0.00 | 0.00 | 0.00 | 77 | 1012.9 |
| 20260831031517 | 29 | 128 | 3.2 | 9.7 | 0.00 | 0.00 | 0.00 | 77 | 1012.8 |
| 20260831031417 | 29 | 145 | 3.2 | 9.7 | 0.00 | 0.00 | 0.00 | 77 | 1012.9 |
| 20260831031316 | 29 | 152 | 3.2 | 11.3 | 0.00 | 0.00 | 0.00 | 77 | 1012.8 |
| 20260831031217 | 29 | 123 | 4.8 | 11.3 | 0.00 | 0.00 | 0.00 | 77 | 1012.9 |
| 20260831031118 | 29 | 164 | 6.4 | 11.3 | 0.00 | 0.00 | 0.00 | 77 | 1012.8 |
| 20260831031016 | 29 | 148 | 6.4 | 11.3 | 0.00 | 0.00 | 0.00 | 76 | 1012.8 |
| 20260831030916 | 29 | 113 | 4.8 | 11.3 | 0.00 | 0.00 | 0.00 | 76 | 1012.8 |
| 20260831030818 | 29 | 137 | 3.2 | 11.3 | 0.00 | 0.00 | 0.00 | 76 | 1012.7 |
| 20260831030717 | 29 | 135 | 4.8 | 11.3 | 0.00 | 0.00 | 0.00 | 76 | 1012.7 |
| 20260831030617 | 29 | 189 | 6.4 | 11.3 | 0.00 | 0.00 | 0.00 | 76 | 1012.8 |
| 20260831030518 | 29 | 152 | 6.4 | 14.5 | 0.00 | 0.00 | 0.00 | 76 | 1012.8 |
| 20260831030416 | 30 | 165 | 4.8 | 16.1 | 0.00 | 0.00 | 0.00 | 76 | 1012.7 |
| 20260831030317 | 30 | 140 | 4.8 | 16.1 | 0.00 | 0.00 | 0.00 | 75 | 1012.6 |
| 20260831030217 | 30 | 151 | 4.8 | 16.1 | 0.00 | 0.00 | 0.00 | 75 | 1012.6 |
| 20260831030117 | 30 | 159 | 3.2 | 16.1 | 0.00 | 0.00 | 0.00 | 75 | 1012.6 |
| 20260831030017 | 30 | 134 | 4.8 | 17.7 | 0.00 | 0.00 | 0.00 | 75 | 1012.6 |
| 20260831025917 | 30 | 151 | 6.4 | 17.7 | 0.00 | 0.00 | 0.00 | 75 | 1012.6 |
| 20260831025818 | 30 | 169 | 8.0 | 17.7 | 0.00 | 0.00 | 0.00 | 75 | 1012.5 |
| 20260831025716 | 30 | 151 | 8.0 | 17.7 | 0.00 | 0.00 | 0.00 | 75 | 1012.6 |
| 20260831025618 | 30 | 162 | 8.0 | 17.7 | 0.00 | 0.00 | 0.00 | 75 | 1012.5 |
| 20260831025517 | 30 | 190 | 6.4 | 17.7 | 0.00 | 0.00 | 0.00 | 75 | 1012.5 |
| 20260831025417 | 30 | 196 | 6.4 | 17.7 | 0.00 | 0.00 | 0.00 | 74 | 1012.4 |
| 20260831025316 | 30 | 216 | 8.0 | 17.7 | 0.00 | 0.00 | 0.00 | 74 | 1012.4 |
| 20260831025216 | 30 | 173 | 9.7 | 17.7 | 0.00 | 0.00 | 0.00 | 74 | 1012.4 |
| 20260831025117 | 30 | 165 | 8.0 | 17.7 | 0.00 | 0.00 | 0.00 | 74 | 1012.4 |
| 20260831025016 | 30 | 200 | 9.7 | 17.7 | 0.00 | 0.00 | 0.00 | 74 | 1012.4 |
| 20260831024918 | 30 | 192 | 11.3 | 17.7 | 0.00 | 0.00 | 0.00 | 74 | 1012.4 |
| 20260831024818 | 30 | 111 | 9.7 | 17.7 | 0.00 | 0.00 | 0.00 | 74 | 1012.4 |
| 20260831024716 | 30 | 183 | 9.7 | 17.7 | 0.00 | 0.00 | 0.00 | 74 | 1012.3 |
| 20260831024616 | 30 | 227 | 8.0 | 17.7 | 0.00 | 0.00 | 0.00 | 74 | 1012.4 |
| 20260831024516 | 30 | 203 | 6.4 | 14.5 | 0.00 | 0.00 | 0.00 | 74 | 1012.4 |
| 20260831024417 | 30 | 145 | 6.4 | 14.5 | 0.00 | 0.00 | 0.00 | 74 | 1012.4 |
| 20260831024316 | 30 | 96 | 4.8 | 11.3 | 0.00 | 0.00 | 0.00 | 74 | 1012.5 |
| 20260831024218 | 30 | 221 | 4.8 | 11.3 | 0.00 | 0.00 | 0.00 | 74 | 1012.5 |
| 20260831024117 | 30 | 164 | 4.8 | 11.3 | 0.00 | 0.00 | 0.00 | 74 | 1012.4 |
| 20260831024017 | 30 | 155 | 4.8 | 11.3 | 0.00 | 0.00 | 0.00 | 73 | 1012.4 |
| 20260831023916 | 30 | 133 | 4.8 | 11.3 | 0.00 | 0.00 | 0.00 | 73 | 1012.4 |
| 20260831023815 | 30 | 149 | 4.8 | 11.3 | 0.00 | 0.00 | 0.00 | 73 | 1012.4 |
| 20260831023717 | 30 | 137 | 4.8 | 9.7 | 0.00 | 0.00 | 0.00 | 73 | 1012.3 |
| 20260831023617 | 30 | 113 | 4.8 | 9.7 | 0.00 | 0.00 | 0.00 | 73 | 1012.4 |
| 20260831023516 | 30 | 130 | 4.8 | 9.7 | 0.00 | 0.00 | 0.00 | 73 | 1012.4 |
| 20260831023416 | 30 | 134 | 6.4 | 9.7 | 0.00 | 0.00 | 0.00 | 73 | 1012.4 |
| 20260831023317 | 30 | 148 | 6.4 | 9.7 | 0.00 | 0.00 | 0.00 | 73 | 1012.4 |
| 20260831023216 | 30 | 107 | 3.2 | 9.7 | 0.00 | 0.00 | 0.00 | 72 | 1012.3 |
| 20260831023116 | 30 | 80 | 3.2 | 9.7 | 0.00 | 0.00 | 0.00 | 72 | 1012.2 |
| 20260831023017 | 30 | 134 | 6.4 | 9.7 | 0.00 | 0.00 | 0.00 | 72 | 1012.3 |
| 20260831022916 | 30 | 159 | 4.8 | 9.7 | 0.00 | 0.00 | 0.00 | 72 | 1012.2 |
| 20260831022815 | 30 | 154 | 4.8 | 9.7 | 0.00 | 0.00 | 0.00 | 72 | 1012.2 |
| 20260831022716 | 30 | 118 | 4.8 | 9.7 | 0.00 | 0.00 | 0.00 | 72 | 1012.2 |
| 20260831022616 | 30 | 144 | 4.8 | 9.7 | 0.00 | 0.00 | 0.00 | 71 | 1012.3 |
| 20260831022515 | 30 | 89 | 4.8 | 9.7 | 0.00 | 0.00 | 0.00 | 71 | 1012.2 |
| 20260831022415 | 30 | 133 | 4.8 | 9.7 | 0.00 | 0.00 | 0.00 | 71 | 1012.2 |
| 20260831022315 | 30 | 128 | 4.8 | 9.7 | 0.00 | 0.00 | 0.00 | 71 | 1012.2 |
| 20260831022216 | 30 | 158 | 6.4 | 9.7 | 0.00 | 0.00 | 0.00 | 71 | 1012.1 |
| 20260831022114 | 30 | 131 | 3.2 | 9.7 | 0.00 | 0.00 | 0.00 | 71 | 1012.2 |
| 20260831022011 | 30 | 148 | 1.6 | 11.3 | 0.00 | 0.00 | 0.00 | 71 | 1012.1 |
| 20260831021910 | 30 | 131 | 1.6 | 11.3 | 0.00 | 0.00 | 0.00 | 71 | 1012.0 |
| 20260831021809 | 30 | 130 | 3.2 | 11.3 | 0.00 | 0.00 | 0.00 | 70 | 1012.1 |
| 20260831021707 | 30 | 144 | 3.2 | 11.3 | 0.00 | 0.00 | 0.00 | 70 | 1012.1 |
| 20260831021605 | 30 | 125 | 3.2 | 11.3 | 0.00 | 0.00 | 0.00 | 70 | 1012.0 |
| 20260831021505 | 30 | 155 | 6.4 | 11.3 | 0.00 | 0.00 | 0.00 | 70 | 1011.9 |
| 20260831021403 | 30 | 214 | 4.8 | 11.3 | 0.00 | 0.00 | 0.00 | 70 | 1011.9 |
| 20260831021302 | 30 | 100 | 4.8 | 14.5 | 0.00 | 0.00 | 0.00 | 70 | 1011.9 |
| 20260831021202 | 30 | 166 | 6.4 | 14.5 | 0.00 | 0.00 | 0.00 | 70 | 1011.9 |
| 20260831021104 | 30 | 138 | 6.4 | 17.7 | 0.00 | 0.00 | 0.00 | 70 | 1011.8 |
| 20260831021003 | 30 | 172 | 6.4 | 17.7 | 0.00 | 0.00 | 0.00 | 70 | 1011.9 |
| 20260831020903 | 30 | 171 | 4.8 | 17.7 | 0.00 | 0.00 | 0.00 | 70 | 1011.8 |
| 20260831020803 | 30 | 148 | 4.8 | 17.7 | 0.00 | 0.00 | 0.00 | 70 | 1011.9 |
| 20260831020703 | 30 | 195 | 3.2 | 17.7 | 0.00 | 0.00 | 0.00 | 70 | 1011.9 |
| 20260831020602 | 30 | 207 | 4.8 | 17.7 | 0.00 | 0.00 | 0.00 | 69 | 1011.9 |
| 20260831020502 | 30 | 134 | 8.0 | 17.7 | 0.00 | 0.00 | 0.00 | 69 | 1011.9 |
| 20260831020403 | 30 | 173 | 9.7 | 17.7 | 0.00 | 0.00 | 0.00 | 69 | 1012.0 |
| 20260831020303 | 30 | 148 | 9.7 | 17.7 | 0.00 | 0.00 | 0.00 | 69 | 1011.9 |
| 20260831020202 | 30 | 134 | 8.0 | 17.7 | 0.00 | 0.00 | 0.00 | 69 | 1011.8 |
| 20260831020003 | 30 | 169 | 6.4 | 17.7 | 0.00 | 0.00 | 0.00 | 69 | 1011.8 |
| 20260831015901 | 30 | 99 | 6.4 | 14.5 | 0.00 | 0.00 | 0.00 | 69 | 1011.8 |
| 20260831015802 | 30 | 61 | 4.8 | 14.5 | 0.00 | 0.00 | 0.00 | 69 | 1011.8 |
| 20260831015703 | 31 | 99 | 4.8 | 14.5 | 0.00 | 0.00 | 0.00 | 68 | 1011.8 |
| 20260831015602 | 31 | 131 | 6.4 | 14.5 | 0.00 | 0.00 | 0.00 | 68 | 1011.8 |
| 20260831015503 | 31 | 182 | 6.4 | 14.5 | 0.00 | 0.00 | 0.00 | 68 | 1011.7 |
| 20260831015404 | 31 | 199 | 6.4 | 14.5 | 0.00 | 0.00 | 0.00 | 68 | 1011.8 |
| 20260831015305 | 31 | 165 | 6.4 | 14.5 | 0.00 | 0.00 | 0.00 | 68 | 1011.7 |
| 20260831015202 | 31 | 140 | 6.4 | 14.5 | 0.00 | 0.00 | 0.00 | 68 | 1011.7 |
| 20260831015103 | 31 | 186 | 6.4 | 14.5 | 0.00 | 0.00 | 0.00 | 67 | 1011.7 |
| 20260831015003 | 31 | 176 | 6.4 | 14.5 | 0.00 | 0.00 | 0.00 | 67 | 1011.7 |
| 20260831014902 | 31 | 97 | 6.4 | 14.5 | 0.00 | 0.00 | 0.00 | 67 | 1011.7 |
| 20260831014802 | 31 | 135 | 4.8 | 14.5 | 0.00 | 0.00 | 0.00 | 66 | 1011.7 |
| 20260831014703 | 31 | 192 | 6.4 | 14.5 | 0.00 | 0.00 | 0.00 | 66 | 1011.6 |
| 20260831014602 | 31 | 104 | 4.8 | 14.5 | 0.00 | 0.00 | 0.00 | 66 | 1011.6 |
| 20260831014502 | 31 | 138 | 6.4 | 14.5 | 0.00 | 0.00 | 0.00 | 66 | 1011.7 |
| 20260831014403 | 31 | 165 | 6.4 | 14.5 | 0.00 | 0.00 | 0.00 | 66 | 1011.6 |
| 20260831014303 | 31 | 102 | 6.4 | 14.5 | 0.00 | 0.00 | 0.00 | 65 | 1011.7 |
| 20260831014201 | 31 | 169 | 4.8 | 11.3 | 0.00 | 0.00 | 0.00 | 65 | 1011.6 |
| 20260831014102 | 31 | 113 | 4.8 | 11.3 | 0.00 | 0.00 | 0.00 | 65 | 1011.7 |
| 20260831014003 | 31 | 161 | 4.8 | 11.3 | 0.00 | 0.00 | 0.00 | 65 | 1011.7 |
| 20260831013903 | 31 | 172 | 4.8 | 11.3 | 0.00 | 0.00 | 0.00 | 65 | 1011.6 |
| 20260831013802 | 31 | 147 | 3.2 | 11.3 | 0.00 | 0.00 | 0.00 | 65 | 1011.7 |
| 20260831013702 | 31 | 203 | 3.2 | 11.3 | 0.00 | 0.00 | 0.00 | 64 | 1011.6 |
| 20260831013602 | 31 | 158 | 4.8 | 11.3 | 0.00 | 0.00 | 0.00 | 64 | 1011.6 |
| 20260831013500 | 31 | 131 | 6.4 | 11.3 | 0.00 | 0.00 | 0.00 | 64 | 1011.7 |
| 20260831013359 | 31 | 155 | 6.4 | 11.3 | 0.00 | 0.00 | 0.00 | 64 | 1011.6 |
| 20260831013258 | 31 | 189 | 4.8 | 14.5 | 0.00 | 0.00 | 0.00 | 64 | 1011.6 |
| 20260831013155 | 31 | 182 | 3.2 | 14.5 | 0.00 | 0.00 | 0.00 | 64 | 1011.6 |
| 20260831013054 | 31 | 100 | 4.8 | 14.5 | 0.00 | 0.00 | 0.00 | 64 | 1011.6 |
| 20260831012953 | 31 | 133 | 4.8 | 14.5 | 0.00 | 0.00 | 0.00 | 64 | 1011.6 |
| 20260831012852 | 31 | 137 | 6.4 | 14.5 | 0.00 | 0.00 | 0.00 | 64 | 1011.6 |
| 20260831012751 | 31 | 138 | 6.4 | 14.5 | 0.00 | 0.00 | 0.00 | 64 | 1011.5 |
| 20260831012648 | 31 | 161 | 6.4 | 14.5 | 0.00 | 0.00 | 0.00 | 64 | 1011.6 |
| 20260831012547 | 31 | 130 | 6.4 | 14.5 | 0.00 | 0.00 | 0.00 | 63 | 1011.5 |
| 20260831012443 | 31 | 152 | 8.0 | 14.5 | 0.00 | 0.00 | 0.00 | 63 | 1011.6 |
| 20260831012340 | 31 | 158 | 6.4 | 14.5 | 0.00 | 0.00 | 0.00 | 63 | 1011.5 |
| 20260831012238 | 31 | 134 | 4.8 | 8.0 | 0.00 | 0.00 | 0.00 | 63 | 1011.5 |
| 20260831012137 | 31 | 159 | 4.8 | 8.0 | 0.00 | 0.00 | 0.00 | 63 | 1011.6 |
| 20260831012037 | 31 | 144 | 4.8 | 9.7 | 0.00 | 0.00 | 0.00 | 63 | 1011.5 |
| 20260831011934 | 31 | 159 | 3.2 | 14.5 | 0.00 | 0.00 | 0.00 | 62 | 1011.6 |
| 20260831011834 | 31 | 121 | 1.6 | 14.5 | 0.00 | 0.00 | 0.00 | 62 | 1011.5 |
| 20260831011732 | 31 | 135 | 3.2 | 14.5 | 0.00 | 0.00 | 0.00 | 62 | 1011.6 |
| 20260831011631 | 31 | 138 | 3.2 | 14.5 | 0.00 | 0.00 | 0.00 | 62 | 1011.6 |
| 20260831011531 | 31 | 149 | 3.2 | 14.5 | 0.00 | 0.00 | 0.00 | 62 | 1011.5 |
| 20260831011431 | 31 | 149 | 3.2 | 14.5 | 0.00 | 0.00 | 0.00 | 61 | 1011.5 |
| 20260831011332 | 31 | 144 | 3.2 | 14.5 | 0.00 | 0.00 | 0.00 | 61 | 1011.6 |
| 20260831011232 | 31 | 109 | 6.4 | 14.5 | 0.00 | 0.00 | 0.00 | 61 | 1011.5 |
| 20260831011131 | 31 | 130 | 8.0 | 14.5 | 0.00 | 0.00 | 0.00 | 61 | 1011.5 |
| 20260831011030 | 31 | 135 | 3.2 | 14.5 | 0.00 | 0.00 | 0.00 | 60 | 1011.5 |
| 20260831010931 | 31 | 179 | 3.2 | 9.7 | 0.00 | 0.00 | 0.00 | 60 | 1011.5 |
| 20260831010831 | 31 | 141 | 4.8 | 9.7 | 0.00 | 0.00 | 0.00 | 60 | 1011.6 |
| 20260831010731 | 31 | 116 | 4.8 | 9.7 | 0.00 | 0.00 | 0.00 | 60 | 1011.5 |
| 20260831010632 | 31 | 104 | 4.8 | 9.7 | 0.00 | 0.00 | 0.00 | 60 | 1011.5 |
| 20260831010532 | 31 | 99 | 4.8 | 9.7 | 0.00 | 0.00 | 0.00 | 60 | 1011.5 |
| 20260831010432 | 32 | 141 | 4.8 | 9.7 | 0.00 | 0.00 | 0.00 | 60 | 1011.5 |
| 20260831010332 | 32 | 102 | 3.2 | 9.7 | 0.00 | 0.00 | 0.00 | 59 | 1011.5 |
| 20260831010231 | 32 | 133 | 3.2 | 14.5 | 0.00 | 0.00 | 0.00 | 59 | 1011.5 |
| 20260831010132 | 32 | 113 | 4.8 | 14.5 | 0.00 | 0.00 | 0.00 | 59 | 1011.5 |
| 20260831010032 | 32 | 140 | 6.4 | 14.5 | 0.00 | 0.00 | 0.00 | 59 | 1011.5 |
| 20260831005931 | 32 | 94 | 6.4 | 14.5 | 0.00 | 0.00 | 0.00 | 59 | 1011.4 |
| 20260831005832 | 32 | 103 | 6.4 | 14.5 | 0.00 | 0.00 | 0.00 | 58 | 1011.4 |
| 20260831005732 | 32 | 124 | 6.4 | 14.5 | 0.00 | 0.00 | 0.00 | 58 | 1011.4 |
| 20260831005631 | 32 | 123 | 6.4 | 20.9 | 0.00 | 0.00 | 0.00 | 58 | 1011.4 |
| 20260831005533 | 32 | 80 | 6.4 | 20.9 | 0.00 | 0.00 | 0.00 | 58 | 1011.4 |
| 20260831005431 | 32 | 128 | 6.4 | 20.9 | 0.00 | 0.00 | 0.00 | 58 | 1011.4 |
| 20260831005331 | 32 | 110 | 6.4 | 20.9 | 0.00 | 0.00 | 0.00 | 57 | 1011.4 |
| 20260831005230 | 32 | 103 | 6.4 | 20.9 | 0.00 | 0.00 | 0.00 | 57 | 1011.4 |
| 20260831005132 | 32 | 121 | 4.8 | 20.9 | 0.00 | 0.00 | 0.00 | 57 | 1011.4 |
| 20260831005032 | 32 | 94 | 4.8 | 20.9 | 0.00 | 0.00 | 0.00 | 57 | 1011.3 |
| 20260831004931 | 32 | 128 | 6.4 | 20.9 | 0.00 | 0.00 | 0.00 | 57 | 1011.4 |
| 20260831004832 | 32 | 145 | 9.7 | 20.9 | 0.00 | 0.00 | 0.00 | 57 | 1011.4 |
| 20260831004732 | 32 | 151 | 9.7 | 20.9 | 0.00 | 0.00 | 0.00 | 56 | 1011.4 |
| 20260831004631 | 32 | 114 | 6.4 | 16.1 | 0.00 | 0.00 | 0.00 | 56 | 1011.4 |
| 20260831004531 | 32 | 116 | 4.8 | 16.1 | 0.00 | 0.00 | 0.00 | 56 | 1011.4 |
| 20260831004431 | 32 | 83 | 6.4 | 16.1 | 0.00 | 0.00 | 0.00 | 56 | 1011.4 |
| 20260831004331 | 32 | 135 | 9.7 | 16.1 | 0.00 | 0.00 | 0.00 | 56 | 1011.3 |
| 20260831004231 | 32 | 109 | 6.4 | 16.1 | 0.00 | 0.00 | 0.00 | 55 | 1011.4 |
| 20260831004132 | 32 | 100 | 6.4 | 14.5 | 0.00 | 0.00 | 0.00 | 55 | 1011.4 |
| 20260831004031 | 32 | 164 | 8.0 | 14.5 | 0.00 | 0.00 | 0.00 | 55 | 1011.4 |
| 20260831003931 | 32 | 104 | 8.0 | 17.7 | 0.00 | 0.00 | 0.00 | 55 | 1011.4 |
| 20260831003832 | 32 | 117 | 6.4 | 17.7 | 0.00 | 0.00 | 0.00 | 55 | 1011.4 |
| 20260831003731 | 32 | 133 | 6.4 | 17.7 | 0.00 | 0.00 | 0.00 | 54 | 1011.4 |
| 20260831003631 | 32 | 110 | 6.4 | 19.3 | 0.00 | 0.00 | 0.00 | 54 | 1011.4 |
| 20260831003531 | 32 | 124 | 6.4 | 19.3 | 0.00 | 0.00 | 0.00 | 54 | 1011.4 |
| 20260831003431 | 32 | 106 | 8.0 | 19.3 | 0.00 | 0.00 | 0.00 | 54 | 1011.4 |
| 20260831003332 | 33 | 116 | 8.0 | 19.3 | 0.00 | 0.00 | 0.00 | 53 | 1011.4 |
| 20260831003232 | 33 | 97 | 8.0 | 19.3 | 0.00 | 0.00 | 0.00 | 53 | 1011.4 |
| 20260831003132 | 33 | 148 | 11.3 | 19.3 | 0.00 | 0.00 | 0.00 | 53 | 1011.4 |
| 20260831003032 | 33 | 107 | 11.3 | 19.3 | 0.00 | 0.00 | 0.00 | 52 | 1011.4 |
| 20260831002931 | 33 | 104 | 8.0 | 19.3 | 0.00 | 0.00 | 0.00 | 52 | 1011.3 |
| 20260831002833 | 33 | 111 | 9.7 | 19.3 | 0.00 | 0.00 | 0.00 | 51 | 1011.4 |
| 20260831002732 | 33 | 127 | 8.0 | 19.3 | 0.00 | 0.00 | 0.00 | 51 | 1011.4 |
| 20260831002633 | 33 | 87 | 8.0 | 16.1 | 0.00 | 0.00 | 0.00 | 51 | 1011.4 |
| 20260831002531 | 33 | 128 | 6.4 | 17.7 | 0.00 | 0.00 | 0.00 | 51 | 1011.4 |
| 20260831002431 | 33 | 78 | 4.8 | 17.7 | 0.00 | 0.00 | 0.00 | 50 | 1011.4 |
| 20260831002332 | 33 | 99 | 8.0 | 17.7 | 0.00 | 0.00 | 0.00 | 49 | 1011.5 |
| 20260831002230 | 33 | 111 | 8.0 | 17.7 | 0.00 | 0.00 | 0.00 | 49 | 1011.4 |
| 20260831002128 | 33 | 113 | 8.0 | 17.7 | 0.00 | 0.00 | 0.00 | 49 | 1011.5 |
| 20260831002027 | 33 | 176 | 9.7 | 17.7 | 0.00 | 0.00 | 0.00 | 48 | 1011.5 |
| 20260831001924 | 33 | 102 | 8.0 | 19.3 | 0.00 | 0.00 | 0.00 | 49 | 1011.4 |
| 20260831001823 | 33 | 103 | 9.7 | 19.3 | 0.00 | 0.00 | 0.00 | 49 | 1011.4 |
| 20260831001719 | 33 | 140 | 11.3 | 19.3 | 0.00 | 0.00 | 0.00 | 49 | 1011.4 |
| 20260831001616 | 33 | 96 | 11.3 | 19.3 | 0.00 | 0.00 | 0.00 | 49 | 1011.4 |
| 20260831001517 | 33 | 118 | 11.3 | 19.3 | 0.00 | 0.00 | 0.00 | 49 | 1011.5 |
| 20260831001414 | 33 | 89 | 12.9 | 19.3 | 0.00 | 0.00 | 0.00 | 49 | 1011.4 |
| 20260831001313 | 33 | 131 | 12.9 | 19.3 | 0.00 | 0.00 | 0.00 | 49 | 1011.4 |
| 20260831001213 | 33 | 137 | 11.3 | 19.3 | 0.00 | 0.00 | 0.00 | 50 | 1011.5 |
| 20260831001113 | 33 | 104 | 9.7 | 19.3 | 0.00 | 0.00 | 0.00 | 50 | 1011.4 |
| 20260831001012 | 33 | 96 | 8.0 | 19.3 | 0.00 | 0.00 | 0.00 | 50 | 1011.4 |
| 20260831000913 | 33 | 116 | 8.0 | 19.3 | 0.00 | 0.00 | 0.00 | 50 | 1011.3 |
| 20260831000815 | 33 | 148 | 8.0 | 19.3 | 0.00 | 0.00 | 0.00 | 50 | 1011.4 |
| 20260831000713 | 33 | 161 | 8.0 | 19.3 | 0.00 | 0.00 | 0.00 | 51 | 1011.4 |
| 20260831000612 | 33 | 94 | 9.7 | 19.3 | 0.00 | 0.00 | 0.00 | 51 | 1011.4 |
| 20260831000512 | 33 | 94 | 8.0 | 19.3 | 0.00 | 0.00 | 0.00 | 51 | 1011.4 |
| 20260831000412 | 33 | 138 | 9.7 | 19.3 | 0.00 | 0.00 | 0.00 | 52 | 1011.3 |
| 20260831000312 | 33 | 148 | 9.7 | 22.5 | 0.00 | 0.00 | 0.00 | 52 | 1011.3 |
| 20260831000212 | 33 | 79 | 9.7 | 22.5 | 0.00 | 0.00 | 0.00 | 53 | 1011.3 |
| 20260831000114 | 33 | 106 | 9.7 | 22.5 | 0.00 | 0.00 | 0.00 | 53 | 1011.3 |
| 20260831000012 | 33 | 102 | 8.0 | 22.5 | 0.00 | 0.00 | 0.00 | 54 | 1011.3 |
| 20260830235912 | 33 | 176 | 6.4 | 22.5 | 0.00 | 0.00 | 0.00 | 54 | 1011.3 |
| 20260830235815 | 33 | 90 | 8.0 | 22.5 | 0.00 | 0.00 | 0.00 | 54 | 1011.4 |
| 20260830235712 | 33 | 151 | 9.7 | 22.5 | 0.00 | 0.00 | 0.00 | 54 | 1011.3 |
| 20260830235612 | 33 | 128 | 12.9 | 22.5 | 0.00 | 0.00 | 0.00 | 53 | 1011.4 |
| 20260830235512 | 33 | 102 | 16.1 | 22.5 | 0.00 | 0.00 | 0.00 | 54 | 1011.3 |
| 20260830235413 | 33 | 120 | 11.3 | 22.5 | 0.00 | 0.00 | 0.00 | 54 | 1011.3 |
| 20260830235313 | 33 | 117 | 9.7 | 22.5 | 0.00 | 0.00 | 0.00 | 54 | 1011.3 |
| 20260830235213 | 33 | 147 | 9.7 | 22.5 | 0.00 | 0.00 | 0.00 | 53 | 1011.3 |
| 20260830235113 | 33 | 96 | 8.0 | 22.5 | 0.00 | 0.00 | 0.00 | 54 | 1011.2 |
| 20260830235012 | 33 | 138 | 8.0 | 22.5 | 0.00 | 0.00 | 0.00 | 53 | 1011.3 |
| 20260830234912 | 33 | 120 | 11.3 | 22.5 | 0.00 | 0.00 | 0.00 | 53 | 1011.3 |
| 20260830234812 | 33 | 137 | 14.5 | 22.5 | 0.00 | 0.00 | 0.00 | 53 | 1011.2 |
| 20260830234715 | 33 | 80 | 12.9 | 22.5 | 0.00 | 0.00 | 0.00 | 53 | 1011.3 |
| 20260830234611 | 34 | 103 | 11.3 | 20.9 | 0.00 | 0.00 | 0.00 | 52 | 1011.3 |
| 20260830234511 | 34 | 124 | 12.9 | 20.9 | 0.00 | 0.00 | 0.00 | 51 | 1011.3 |
| 20260830234413 | 34 | 111 | 12.9 | 20.9 | 0.00 | 0.00 | 0.00 | 51 | 1011.3 |
| 20260830234313 | 34 | 123 | 9.7 | 19.3 | 0.00 | 0.00 | 0.00 | 50 | 1011.3 |
| 20260830234212 | 34 | 123 | 8.0 | 19.3 | 0.00 | 0.00 | 0.00 | 50 | 1011.3 |
| 20260830234113 | 34 | 117 | 8.0 | 19.3 | 0.00 | 0.00 | 0.00 | 50 | 1011.2 |
| 20260830234014 | 34 | 109 | 9.7 | 19.3 | 0.00 | 0.00 | 0.00 | 50 | 1011.2 |
| 20260830233913 | 34 | 152 | 9.7 | 19.3 | 0.00 | 0.00 | 0.00 | 50 | 1011.2 |
| 20260830233812 | 34 | 140 | 8.0 | 19.3 | 0.00 | 0.00 | 0.00 | 50 | 1011.2 |
| 20260830233713 | 34 | 120 | 8.0 | 19.3 | 0.00 | 0.00 | 0.00 | 50 | 1011.2 |
| 20260830233611 | 34 | 104 | 8.0 | 19.3 | 0.00 | 0.00 | 0.00 | 49 | 1011.2 |
| 20260830233511 | 35 | 195 | 6.4 | 19.3 | 0.00 | 0.00 | 0.00 | 49 | 1011.2 |
| 20260830233412 | 35 | 106 | 6.4 | 19.3 | 0.00 | 0.00 | 0.00 | 49 | 1011.1 |
| 20260830233313 | 35 | 89 | 8.0 | 19.3 | 0.00 | 0.00 | 0.00 | 48 | 1011.2 |
| 20260830233212 | 35 | 104 | 8.0 | 19.3 | 0.00 | 0.00 | 0.00 | 48 | 1011.2 |
| 20260830233111 | 35 | 141 | 11.3 | 19.3 | 0.00 | 0.00 | 0.00 | 48 | 1011.1 |
| 20260830233012 | 35 | 116 | 11.3 | 19.3 | 0.00 | 0.00 | 0.00 | 47 | 1011.2 |
| 20260830232912 | 35 | 80 | 8.0 | 19.3 | 0.00 | 0.00 | 0.00 | 48 | 1011.2 |
| 20260830232811 | 35 | 93 | 8.0 | 19.3 | 0.00 | 0.00 | 0.00 | 48 | 1011.2 |
| 20260830232712 | 35 | 137 | 8.0 | 25.7 | 0.00 | 0.00 | 0.00 | 48 | 1011.2 |
| 20260830232613 | 35 | 100 | 8.0 | 25.7 | 0.00 | 0.00 | 0.00 | 48 | 1011.3 |
| 20260830232512 | 35 | 196 | 9.7 | 25.7 | 0.00 | 0.00 | 0.00 | 48 | 1011.3 |
| 20260830232412 | 35 | 96 | 8.0 | 25.7 | 0.00 | 0.00 | 0.00 | 49 | 1011.3 |
| 20260830232312 | 35 | 73 | 8.0 | 25.7 | 0.00 | 0.00 | 0.00 | 50 | 1011.2 |
| 20260830232212 | 35 | 100 | 9.7 | 25.7 | 0.00 | 0.00 | 0.00 | 50 | 1011.3 |
| 20260830232111 | 35 | 128 | 9.7 | 25.7 | 0.00 | 0.00 | 0.00 | 51 | 1011.2 |
| 20260830232011 | 35 | 135 | 9.7 | 25.7 | 0.00 | 0.00 | 0.00 | 51 | 1011.2 |
| 20260830231912 | 35 | 117 | 11.3 | 25.7 | 0.00 | 0.00 | 0.00 | 51 | 1011.2 |
| 20260830231811 | 35 | 154 | 11.3 | 25.7 | 0.00 | 0.00 | 0.00 | 51 | 1011.2 |
| 20260830231711 | 35 | 186 | 6.4 | 17.7 | 0.00 | 0.00 | 0.00 | 52 | 1011.1 |
| 20260830231612 | 35 | 104 | 6.4 | 17.7 | 0.00 | 0.00 | 0.00 | 52 | 1011.1 |
| 20260830231512 | 35 | 121 | 6.4 | 22.5 | 0.00 | 0.00 | 0.00 | 53 | 1011.1 |
| 20260830231411 | 35 | 161 | 9.7 | 22.5 | 0.00 | 0.00 | 0.00 | 53 | 1011.2 |
| 20260830231312 | 35 | 80 | 9.7 | 22.5 | 0.00 | 0.00 | 0.00 | 53 | 1011.1 |
| 20260830231212 | 35 | 103 | 9.7 | 22.5 | 0.00 | 0.00 | 0.00 | 52 | 1011.2 |
| 20260830231112 | 35 | 86 | 9.7 | 22.5 | 0.00 | 0.00 | 0.00 | 52 | 1011.1 |
| 20260830231012 | 35 | 100 | 8.0 | 22.5 | 0.00 | 0.00 | 0.00 | 52 | 1011.2 |
| 20260830230912 | 35 | 241 | 9.7 | 22.5 | 0.00 | 0.00 | 0.00 | 52 | 1011.2 |
| 20260830230811 | 35 | 106 | 11.3 | 22.5 | 0.00 | 0.00 | 0.00 | 52 | 1011.2 |
| 20260830230712 | 35 | 107 | 14.5 | 22.5 | 0.00 | 0.00 | 0.00 | 52 | 1011.3 |
| 20260830230612 | 35 | 92 | 14.5 | 22.5 | 0.00 | 0.00 | 0.00 | 52 | 1011.3 |
| 20260830230511 | 35 | 96 | 9.7 | 20.9 | 0.00 | 0.00 | 0.00 | 52 | 1011.2 |
| 20260830230411 | 35 | 107 | 8.0 | 17.7 | 0.00 | 0.00 | 0.00 | 52 | 1011.2 |
| 20260830230311 | 35 | 110 | 8.0 | 17.7 | 0.00 | 0.00 | 0.00 | 52 | 1011.2 |
| 20260830230213 | 35 | 116 | 9.7 | 17.7 | 0.00 | 0.00 | 0.00 | 51 | 1011.3 |
| 20260830230111 | 35 | 121 | 11.3 | 17.7 | 0.00 | 0.00 | 0.00 | 51 | 1011.2 |
| 20260830230010 | 35 | 113 | 8.0 | 17.7 | 0.00 | 0.00 | 0.00 | 51 | 1011.3 |
| 20260830225911 | 35 | 120 | 8.0 | 17.7 | 0.00 | 0.00 | 0.00 | 52 | 1011.2 |
| 20260830225810 | 35 | 148 | 8.0 | 17.7 | 0.00 | 0.00 | 0.00 | 51 | 1011.2 |
| 20260830225711 | 35 | 131 | 8.0 | 17.7 | 0.00 | 0.00 | 0.00 | 51 | 1011.2 |
| 20260830225611 | 35 | 89 | 9.7 | 17.7 | 0.00 | 0.00 | 0.00 | 51 | 1011.1 |
| 20260830225512 | 35 | 114 | 11.3 | 17.7 | 0.00 | 0.00 | 0.00 | 51 | 1011.3 |
| 20260830225411 | 35 | 99 | 11.3 | 17.7 | 0.00 | 0.00 | 0.00 | 51 | 1011.2 |
| 20260830225312 | 35 | 120 | 9.7 | 17.7 | 0.00 | 0.00 | 0.00 | 50 | 1011.2 |
| 20260830225212 | 35 | 190 | 8.0 | 17.7 | 0.00 | 0.00 | 0.00 | 50 | 1011.2 |
| 20260830225112 | 35 | 192 | 9.7 | 17.7 | 0.00 | 0.00 | 0.00 | 50 | 1011.1 |
| 20260830225012 | 35 | 149 | 9.7 | 17.7 | 0.00 | 0.00 | 0.00 | 50 | 1011.2 |
| 20260830224912 | 35 | 123 | 9.7 | 17.7 | 0.00 | 0.00 | 0.00 | 50 | 1011.1 |
| 20260830224812 | 36 | 200 | 8.0 | 16.1 | 0.00 | 0.00 | 0.00 | 51 | 1011.2 |
| 20260830224711 | 36 | 117 | 6.4 | 16.1 | 0.00 | 0.00 | 0.00 | 51 | 1011.2 |
| 20260830224610 | 36 | 155 | 6.4 | 16.1 | 0.00 | 0.00 | 0.00 | 50 | 1011.2 |
| 20260830224511 | 35 | 162 | 6.4 | 16.1 | 0.00 | 0.00 | 0.00 | 50 | 1011.2 |
| 20260830224411 | 36 | 100 | 6.4 | 16.1 | 0.00 | 0.00 | 0.00 | 50 | 1011.2 |
| 20260830224310 | 36 | 87 | 6.4 | 16.1 | 0.00 | 0.00 | 0.00 | 50 | 1011.2 |
| 20260830224211 | 36 | 120 | 4.8 | 19.3 | 0.00 | 0.00 | 0.00 | 50 | 1011.1 |
| 20260830224112 | 36 | 162 | 6.4 | 19.3 | 0.00 | 0.00 | 0.00 | 49 | 1011.2 |
| 20260830224010 | 36 | 182 | 6.4 | 19.3 | 0.00 | 0.00 | 0.00 | 50 | 1011.2 |
| 20260830223910 | 36 | 158 | 8.0 | 19.3 | 0.00 | 0.00 | 0.00 | 50 | 1011.2 |
| 20260830223811 | 36 | 109 | 6.4 | 20.9 | 0.00 | 0.00 | 0.00 | 50 | 1011.2 |
| 20260830223711 | 36 | 114 | 6.4 | 20.9 | 0.00 | 0.00 | 0.00 | 50 | 1011.1 |
| 20260830223611 | 35 | 87 | 6.4 | 20.9 | 0.00 | 0.00 | 0.00 | 49 | 1011.2 |
| 20260830223510 | 35 | 144 | 6.4 | 20.9 | 0.00 | 0.00 | 0.00 | 50 | 1011.2 |
| 20260830223412 | 35 | 185 | 9.7 | 20.9 | 0.00 | 0.00 | 0.00 | 50 | 1011.1 |
| 20260830223310 | 35 | 154 | 11.3 | 20.9 | 0.00 | 0.00 | 0.00 | 50 | 1011.1 |
| 20260830223210 | 35 | 116 | 9.7 | 20.9 | 0.00 | 0.00 | 0.00 | 50 | 1011.1 |
| 20260830223112 | 35 | 92 | 9.7 | 20.9 | 0.00 | 0.00 | 0.00 | 50 | 1011.1 |
| 20260830223010 | 36 | 137 | 14.5 | 20.9 | 0.00 | 0.00 | 0.00 | 50 | 1011.2 |
| 20260830222910 | 36 | 117 | 14.5 | 20.9 | 0.00 | 0.00 | 0.00 | 50 | 1011.1 |
| 20260830222811 | 36 | 92 | 9.7 | 20.9 | 0.00 | 0.00 | 0.00 | 49 | 1011.1 |
| 20260830222712 | 36 | 149 | 6.4 | 16.1 | 0.00 | 0.00 | 0.00 | 50 | 1011.1 |
| 20260830222611 | 36 | 73 | 6.4 | 16.1 | 0.00 | 0.00 | 0.00 | 50 | 1011.1 |
| 20260830222510 | 36 | 133 | 6.4 | 16.1 | 0.00 | 0.00 | 0.00 | 50 | 1011.1 |
| 20260830222412 | 36 | 65 | 6.4 | 16.1 | 0.00 | 0.00 | 0.00 | 50 | 1011.1 |
| 20260830222310 | 36 | 182 | 6.4 | 16.1 | 0.00 | 0.00 | 0.00 | 50 | 1011.1 |
| 20260830222211 | 36 | 138 | 8.0 | 16.1 | 0.00 | 0.00 | 0.00 | 49 | 1011.1 |
| 20260830222111 | 36 | 142 | 8.0 | 16.1 | 0.00 | 0.00 | 0.00 | 49 | 1011.1 |
| 20260830222010 | 36 | 109 | 9.7 | 17.7 | 0.00 | 0.00 | 0.00 | 49 | 1011.2 |
| 20260830221909 | 36 | 147 | 11.3 | 17.7 | 0.00 | 0.00 | 0.00 | 49 | 1011.1 |
| 20260830221810 | 36 | 92 | 9.7 | 17.7 | 0.00 | 0.00 | 0.00 | 48 | 1011.2 |
| 20260830221710 | 36 | 87 | 9.7 | 17.7 | 0.00 | 0.00 | 0.00 | 49 | 1011.1 |
| 20260830221610 | 36 | 107 | 8.0 | 17.7 | 0.00 | 0.00 | 0.00 | 49 | 1011.2 |
| 20260830221509 | 36 | 113 | 6.4 | 17.7 | 0.00 | 0.00 | 0.00 | 49 | 1011.1 |
| 20260830221411 | 36 | 130 | 8.0 | 17.7 | 0.00 | 0.00 | 0.00 | 49 | 1011.1 |
| 20260830221311 | 36 | 130 | 8.0 | 22.5 | 0.00 | 0.00 | 0.00 | 49 | 1011.1 |
| 20260830221211 | 36 | 130 | 8.0 | 22.5 | 0.00 | 0.00 | 0.00 | 49 | 1011.1 |
| 20260830221111 | 36 | 130 | 8.0 | 22.5 | 0.00 | 0.00 | 0.00 | 49 | 1011.1 |
| 20260830221012 | 36 | 106 | 6.4 | 22.5 | 0.00 | 0.00 | 0.00 | 48 | 1011.2 |
| 20260830220910 | 36 | 114 | 6.4 | 22.5 | 0.00 | 0.00 | 0.00 | 48 | 1011.1 |
| 20260830220809 | 36 | 166 | 8.0 | 22.5 | 0.00 | 0.00 | 0.00 | 48 | 1011.1 |
| 20260830220710 | 36 | 152 | 8.0 | 22.5 | 0.00 | 0.00 | 0.00 | 48 | 1011.2 |
| 20260830220611 | 36 | 123 | 8.0 | 22.5 | 0.00 | 0.00 | 0.00 | 49 | 1011.1 |
| 20260830220510 | 36 | 90 | 14.5 | 22.5 | 0.00 | 0.00 | 0.00 | 48 | 1011.2 |
| 20260830220411 | 36 | 109 | 14.5 | 22.5 | 0.00 | 0.00 | 0.00 | 48 | 1011.2 |
| 20260830220311 | 36 | 113 | 11.3 | 19.3 | 0.00 | 0.00 | 0.00 | 47 | 1011.2 |
| 20260830220209 | 36 | 116 | 9.7 | 19.3 | 0.00 | 0.00 | 0.00 | 48 | 1011.1 |
| 20260830220109 | 36 | 55 | 6.4 | 19.3 | 0.00 | 0.00 | 0.00 | 48 | 1011.1 |
| 20260830220009 | 36 | 113 | 8.0 | 19.3 | 0.00 | 0.00 | 0.00 | 49 | 1011.1 |
| 20260830215909 | 36 | 142 | 8.0 | 19.3 | 0.00 | 0.00 | 0.00 | 49 | 1011.0 |
| 20260830215810 | 36 | 120 | 11.3 | 20.9 | 0.00 | 0.00 | 0.00 | 48 | 1011.0 |
| 20260830215710 | 36 | 125 | 14.5 | 20.9 | 0.00 | 0.00 | 0.00 | 48 | 1011.0 |
| 20260830215611 | 36 | 90 | 14.5 | 20.9 | 0.00 | 0.00 | 0.00 | 48 | 1011.0 |
| 20260830215509 | 36 | 125 | 11.3 | 20.9 | 0.00 | 0.00 | 0.00 | 48 | 1011.1 |
| 20260830215409 | 36 | 104 | 9.7 | 20.9 | 0.00 | 0.00 | 0.00 | 49 | 1011.0 |
| 20260830215311 | 36 | 165 | 12.9 | 20.9 | 0.00 | 0.00 | 0.00 | 49 | 1011.0 |
| 20260830215210 | 36 | 96 | 12.9 | 20.9 | 0.00 | 0.00 | 0.00 | 49 | 1011.1 |
| 20260830215110 | 36 | 103 | 12.9 | 20.9 | 0.00 | 0.00 | 0.00 | 49 | 1011.1 |
| 20260830215009 | 36 | 118 | 12.9 | 20.9 | 0.00 | 0.00 | 0.00 | 49 | 1011.1 |
| 20260830214910 | 36 | 130 | 9.7 | 20.9 | 0.00 | 0.00 | 0.00 | 49 | 1011.2 |
| 20260830214809 | 36 | 102 | 8.0 | 16.1 | 0.00 | 0.00 | 0.00 | 50 | 1011.1 |
| 20260830214709 | 36 | 183 | 11.3 | 16.1 | 0.00 | 0.00 | 0.00 | 50 | 1011.1 |
| 20260830214610 | 36 | 111 | 9.7 | 16.1 | 0.00 | 0.00 | 0.00 | 50 | 1011.1 |
| 20260830214509 | 36 | 109 | 9.7 | 16.1 | 0.00 | 0.00 | 0.00 | 50 | 1011.2 |
| 20260830214408 | 36 | 83 | 8.0 | 16.1 | 0.00 | 0.00 | 0.00 | 50 | 1011.2 |
| 20260830214307 | 36 | 106 | 6.4 | 17.7 | 0.00 | 0.00 | 0.00 | 50 | 1011.2 |
| 20260830214204 | 36 | 134 | 6.4 | 22.5 | 0.00 | 0.00 | 0.00 | 50 | 1011.2 |
| 20260830214103 | 36 | 109 | 12.9 | 22.5 | 0.00 | 0.00 | 0.00 | 49 | 1011.2 |
| 20260830214004 | 36 | 109 | 12.9 | 22.5 | 0.00 | 0.00 | 0.00 | 49 | 1011.2 |
| 20260830213903 | 36 | 109 | 12.9 | 22.5 | 0.00 | 0.00 | 0.00 | 49 | 1011.2 |
| 20260830213803 | 36 | 109 | 12.9 | 25.7 | 0.00 | 0.00 | 0.00 | 49 | 1011.2 |
| 20260830213704 | 36 | 109 | 12.9 | 25.7 | 0.00 | 0.00 | 0.00 | 49 | 1011.3 |
| 20260830213603 | 36 | 109 | 12.9 | 25.7 | 0.00 | 0.00 | 0.00 | 49 | 1011.3 |
| 20260830213505 | 36 | 109 | 12.9 | 25.7 | 0.00 | 0.00 | 0.00 | 49 | 1011.3 |
| 20260830213403 | 36 | 109 | 12.9 | 25.7 | 0.00 | 0.00 | 0.00 | 49 | 1011.3 |
| 20260830213302 | 36 | 121 | 12.9 | 25.7 | 0.00 | 0.00 | 0.00 | 49 | 1011.3 |
| 20260830213202 | 36 | 107 | 14.5 | 25.7 | 0.00 | 0.00 | 0.00 | 49 | 1011.4 |
| 20260830213104 | 36 | 110 | 14.5 | 25.7 | 0.00 | 0.00 | 0.00 | 48 | 1011.4 |
| 20260830213002 | 36 | 123 | 14.5 | 25.7 | 0.00 | 0.00 | 0.00 | 48 | 1011.3 |
| 20260830212902 | 36 | 117 | 14.5 | 25.7 | 0.00 | 0.00 | 0.00 | 48 | 1011.3 |
| 20260830212802 | 36 | 100 | 9.7 | 24.1 | 0.00 | 0.00 | 0.00 | 47 | 1011.4 |
| 20260830212702 | 36 | 123 | 6.4 | 11.3 | 0.00 | 0.00 | 0.00 | 46 | 1011.4 |
| 20260830212602 | 36 | 86 | 4.8 | 9.7 | 0.00 | 0.00 | 0.00 | 46 | 1011.4 |
| 20260830212502 | 36 | 162 | 6.4 | 9.7 | 0.00 | 0.00 | 0.00 | 48 | 1011.3 |
| 20260830212402 | 36 | 137 | 6.4 | 9.7 | 0.00 | 0.00 | 0.00 | 48 | 1011.4 |
| 20260830212305 | 36 | 133 | 6.4 | 9.7 | 0.00 | 0.00 | 0.00 | 48 | 1011.4 |
| 20260830212202 | 36 | 145 | 6.4 | 9.7 | 0.00 | 0.00 | 0.00 | 48 | 1011.4 |
| 20260830212103 | 36 | 169 | 4.8 | 11.3 | 0.00 | 0.00 | 0.00 | 47 | 1011.4 |
| 20260830212003 | 36 | 134 | 4.8 | 11.3 | 0.00 | 0.00 | 0.00 | 48 | 1011.4 |
| 20260830211901 | 36 | 138 | 4.8 | 11.3 | 0.00 | 0.00 | 0.00 | 47 | 1011.4 |
| 20260830211759 | 36 | 149 | 4.8 | 11.3 | 0.00 | 0.00 | 0.00 | 47 | 1011.4 |
| 20260830211657 | 36 | 161 | 3.2 | 11.3 | 0.00 | 0.00 | 0.00 | 47 | 1011.5 |
| 20260830211555 | 36 | 141 | 4.8 | 11.3 | 0.00 | 0.00 | 0.00 | 47 | 1011.5 |
| 20260830211455 | 36 | 166 | 6.4 | 11.3 | 0.00 | 0.00 | 0.00 | 47 | 1011.6 |
| 20260830211353 | 36 | 141 | 6.4 | 17.7 | 0.00 | 0.00 | 0.00 | 47 | 1011.5 |
| 20260830211252 | 36 | 104 | 6.4 | 17.7 | 0.00 | 0.00 | 0.00 | 47 | 1011.5 |
| 20260830211149 | 36 | 180 | 6.4 | 17.7 | 0.00 | 0.00 | 0.00 | 47 | 1011.6 |
| 20260830211048 | 36 | 169 | 6.4 | 17.7 | 0.00 | 0.00 | 0.00 | 47 | 1011.5 |
| 20260830210947 | 36 | 125 | 8.0 | 17.7 | 0.00 | 0.00 | 0.00 | 47 | 1011.6 |
| 20260830210847 | 36 | 125 | 6.4 | 20.9 | 0.00 | 0.00 | 0.00 | 47 | 1011.6 |
| 20260830210746 | 36 | 107 | 6.4 | 22.5 | 0.00 | 0.00 | 0.00 | 47 | 1011.6 |
| 20260830210645 | 36 | 90 | 8.0 | 22.5 | 0.00 | 0.00 | 0.00 | 47 | 1011.6 |
| 20260830210543 | 36 | 175 | 9.7 | 22.5 | 0.00 | 0.00 | 0.00 | 46 | 1011.7 |
| 20260830210442 | 36 | 151 | 6.4 | 22.5 | 0.00 | 0.00 | 0.00 | 47 | 1011.6 |
| 20260830210338 | 36 | 109 | 6.4 | 22.5 | 0.00 | 0.00 | 0.00 | 46 | 1011.7 |
| 20260830210238 | 36 | 149 | 6.4 | 22.5 | 0.00 | 0.00 | 0.00 | 47 | 1011.7 |
| 20260830210135 | 37 | 106 | 9.7 | 22.5 | 0.00 | 0.00 | 0.00 | 46 | 1011.7 |
| 20260830210033 | 37 | 120 | 14.5 | 22.5 | 0.00 | 0.00 | 0.00 | 46 | 1011.7 |
| 20260830205931 | 37 | 121 | 14.5 | 22.5 | 0.00 | 0.00 | 0.00 | 46 | 1011.8 |
| 20260830205830 | 37 | 118 | 9.7 | 17.7 | 0.00 | 0.00 | 0.00 | 45 | 1011.8 |
| 20260830205730 | 37 | 176 | 9.7 | 17.7 | 0.00 | 0.00 | 0.00 | 45 | 1011.8 |
| 20260830205632 | 37 | 161 | 6.4 | 14.5 | 0.00 | 0.00 | 0.00 | 45 | 1011.8 |
| 20260830205532 | 37 | 230 | 3.2 | 14.5 | 0.00 | 0.00 | 0.00 | 46 | 1011.8 |
| 20260830205431 | 37 | 171 | 3.2 | 14.5 | 0.00 | 0.00 | 0.00 | 46 | 1011.8 |
| 20260830205331 | 37 | 137 | 4.8 | 17.7 | 0.00 | 0.00 | 0.00 | 46 | 1011.8 |
| 20260830205231 | 37 | 243 | 6.4 | 17.7 | 0.00 | 0.00 | 0.00 | 46 | 1011.7 |
| 20260830205132 | 37 | 148 | 6.4 | 17.7 | 0.00 | 0.00 | 0.00 | 45 | 1011.8 |
| 20260830205031 | 37 | 110 | 6.4 | 20.9 | 0.00 | 0.00 | 0.00 | 45 | 1011.8 |
| 20260830204933 | 37 | 175 | 6.4 | 20.9 | 0.00 | 0.00 | 0.00 | 45 | 1011.8 |
| 20260830204831 | 37 | 188 | 8.0 | 20.9 | 0.00 | 0.00 | 0.00 | 46 | 1011.8 |
| 20260830204731 | 37 | 202 | 8.0 | 20.9 | 0.00 | 0.00 | 0.00 | 46 | 1011.9 |
| 20260830204631 | 37 | 248 | 6.4 | 20.9 | 0.00 | 0.00 | 0.00 | 46 | 1011.9 |
| 20260830204532 | 37 | 238 | 8.0 | 20.9 | 0.00 | 0.00 | 0.00 | 46 | 1011.9 |
| 20260830204432 | 37 | 185 | 9.7 | 20.9 | 0.00 | 0.00 | 0.00 | 46 | 1011.8 |
| 20260830204332 | 37 | 196 | 9.7 | 20.9 | 0.00 | 0.00 | 0.00 | 46 | 1011.9 |
| 20260830204233 | 37 | 213 | 12.9 | 20.9 | 0.00 | 0.00 | 0.00 | 46 | 1011.9 |
| 20260830204131 | 37 | 195 | 11.3 | 20.9 | 0.00 | 0.00 | 0.00 | 46 | 1012.0 |
| 20260830204030 | 37 | 202 | 9.7 | 16.1 | 0.00 | 0.00 | 0.00 | 47 | 1012.0 |
| 20260830203931 | 37 | 179 | 8.0 | 16.1 | 0.00 | 0.00 | 0.00 | 46 | 1011.9 |
| 20260830203831 | 37 | 134 | 6.4 | 16.1 | 0.00 | 0.00 | 0.00 | 46 | 1012.0 |
| 20260830203731 | 37 | 151 | 8.0 | 14.5 | 0.00 | 0.00 | 0.00 | 46 | 1012.0 |
| 20260830203630 | 37 | 128 | 8.0 | 14.5 | 0.00 | 0.00 | 0.00 | 47 | 1012.1 |
| 20260830203531 | 36 | 127 | 6.4 | 16.1 | 0.00 | 0.00 | 0.00 | 46 | 1012.1 |
| 20260830203431 | 37 | 111 | 4.8 | 16.1 | 0.00 | 0.00 | 0.00 | 45 | 1012.1 |
| 20260830203330 | 37 | 79 | 4.8 | 16.1 | 0.00 | 0.00 | 0.00 | 46 | 1012.1 |
| 20260830203228 | 37 | 161 | 6.4 | 16.1 | 0.00 | 0.00 | 0.00 | 46 | 1012.2 |
| 20260830203126 | 37 | 166 | 6.4 | 16.1 | 0.00 | 0.00 | 0.00 | 47 | 1012.2 |
| 20260830203024 | 37 | 135 | 6.4 | 16.1 | 0.00 | 0.00 | 0.00 | 46 | 1012.1 |
| 20260830202923 | 37 | 161 | 4.8 | 16.1 | 0.00 | 0.00 | 0.00 | 47 | 1012.2 |
| 20260830202818 | 37 | 125 | 6.4 | 16.1 | 0.00 | 0.00 | 0.00 | 47 | 1012.2 |
| 20260830202716 | 36 | 135 | 8.0 | 16.1 | 0.00 | 0.00 | 0.00 | 47 | 1012.2 |
| 20260830202616 | 37 | 159 | 8.0 | 16.1 | 0.00 | 0.00 | 0.00 | 47 | 1012.2 |
| 20260830202513 | 37 | 199 | 6.4 | 16.1 | 0.00 | 0.00 | 0.00 | 47 | 1012.3 |
| 20260830202412 | 37 | 142 | 8.0 | 16.1 | 0.00 | 0.00 | 0.00 | 47 | 1012.2 |
| 20260830202312 | 37 | 103 | 9.7 | 16.1 | 0.00 | 0.00 | 0.00 | 47 | 1012.3 |
| 20260830202212 | 37 | 96 | 8.0 | 16.1 | 0.00 | 0.00 | 0.00 | 46 | 1012.2 |
| 20260830202112 | 37 | 152 | 6.4 | 11.3 | 0.00 | 0.00 | 0.00 | 48 | 1012.2 |
| 20260830202009 | 37 | 202 | 6.4 | 14.5 | 0.00 | 0.00 | 0.00 | 47 | 1012.3 |
| 20260830201905 | 37 | 154 | 4.8 | 14.5 | 0.00 | 0.00 | 0.00 | 47 | 1012.2 |
| 20260830201808 | 37 | 121 | 4.8 | 14.5 | 0.00 | 0.00 | 0.00 | 48 | 1012.3 |
| 20260830201705 | 37 | 110 | 6.4 | 14.5 | 0.00 | 0.00 | 0.00 | 48 | 1012.3 |
| 20260830201605 | 37 | 152 | 4.8 | 14.5 | 0.00 | 0.00 | 0.00 | 47 | 1012.3 |
| 20260830201506 | 36 | 182 | 6.4 | 14.5 | 0.00 | 0.00 | 0.00 | 49 | 1012.3 |
| 20260830201407 | 36 | 151 | 6.4 | 14.5 | 0.00 | 0.00 | 0.00 | 48 | 1012.3 |
| 20260830201305 | 36 | 87 | 6.4 | 14.5 | 0.00 | 0.00 | 0.00 | 47 | 1012.3 |
| 20260830201206 | 36 | 111 | 8.0 | 14.5 | 0.00 | 0.00 | 0.00 | 47 | 1012.3 |
| 20260830201107 | 36 | 118 | 6.4 | 17.7 | 0.00 | 0.00 | 0.00 | 47 | 1012.3 |
| 20260830201005 | 36 | 124 | 1.6 | 17.7 | 0.00 | 0.00 | 0.00 | 47 | 1012.4 |
| 20260830200905 | 36 | 257 | 3.2 | 17.7 | 0.00 | 0.00 | 0.00 | 48 | 1012.3 |
| 20260830200808 | 36 | 233 | 6.4 | 17.7 | 0.00 | 0.00 | 0.00 | 47 | 1012.4 |
| 20260830200705 | 36 | 233 | 6.4 | 17.7 | 0.00 | 0.00 | 0.00 | 48 | 1012.4 |
| 20260830200605 | 36 | 283 | 4.8 | 17.7 | 0.00 | 0.00 | 0.00 | 48 | 1012.4 |
| 20260830200505 | 36 | 210 | 6.4 | 17.7 | 0.00 | 0.00 | 0.00 | 48 | 1012.4 |
| 20260830200407 | 36 | 230 | 11.3 | 17.7 | 0.00 | 0.00 | 0.00 | 48 | 1012.4 |
| 20260830200305 | 36 | 248 | 12.9 | 17.7 | 0.00 | 0.00 | 0.00 | 49 | 1012.5 |
| 20260830200206 | 36 | 231 | 14.5 | 17.7 | 0.00 | 0.00 | 0.00 | 49 | 1012.5 |
| 20260830200105 | 36 | 244 | 11.3 | 17.7 | 0.00 | 0.00 | 0.00 | 48 | 1012.5 |
| 20260830200005 | 36 | 241 | 9.7 | 17.7 | 0.00 | 0.00 | 0.00 | 48 | 1012.5 |
| 20260830195905 | 36 | 195 | 9.7 | 17.7 | 0.00 | 0.00 | 0.00 | 49 | 1012.6 |
| 20260830195805 | 36 | 257 | 11.3 | 17.7 | 0.00 | 0.00 | 0.00 | 49 | 1012.6 |
| 20260830195707 | 36 | 250 | 11.3 | 17.7 | 0.00 | 0.00 | 0.00 | 48 | 1012.6 |
| 20260830195604 | 36 | 235 | 9.7 | 17.7 | 0.00 | 0.00 | 0.00 | 48 | 1012.6 |
| 20260830195504 | 37 | 250 | 9.7 | 17.7 | 0.00 | 0.00 | 0.00 | 48 | 1012.6 |
| 20260830195405 | 37 | 241 | 4.8 | 17.7 | 0.00 | 0.00 | 0.00 | 49 | 1012.6 |
| 20260830195305 | 36 | 114 | 3.2 | 11.3 | 0.00 | 0.00 | 0.00 | 49 | 1012.6 |
| 20260830195204 | 36 | 113 | 6.4 | 14.5 | 0.00 | 0.00 | 0.00 | 48 | 1012.5 |
| 20260830195104 | 36 | 286 | 9.7 | 14.5 | 0.00 | 0.00 | 0.00 | 48 | 1012.7 |
| 20260830195007 | 37 | 224 | 6.4 | 14.5 | 0.00 | 0.00 | 0.00 | 49 | 1012.6 |
| 20260830194903 | 36 | 235 | 3.2 | 14.5 | 0.00 | 0.00 | 0.00 | 50 | 1012.7 |
| 20260830194803 | 36 | 152 | 3.2 | 14.5 | 0.00 | 0.00 | 0.00 | 49 | 1012.7 |
| 20260830194701 | 36 | 193 | 3.2 | 14.5 | 0.00 | 0.00 | 0.00 | 49 | 1012.7 |
| 20260830194601 | 36 | 157 | 4.8 | 14.5 | 0.00 | 0.00 | 0.00 | 49 | 1012.7 |
| 20260830194503 | 36 | 188 | 6.4 | 14.5 | 0.00 | 0.00 | 0.00 | 51 | 1012.8 |
| 20260830194402 | 36 | 100 | 9.7 | 14.5 | 0.00 | 0.00 | 0.00 | 50 | 1012.8 |
| 20260830194302 | 36 | 111 | 8.0 | 14.5 | 0.00 | 0.00 | 0.00 | 50 | 1012.8 |
| 20260830194203 | 36 | 99 | 6.4 | 14.5 | 0.00 | 0.00 | 0.00 | 49 | 1012.9 |
| 20260830194102 | 36 | 144 | 6.4 | 14.5 | 0.00 | 0.00 | 0.00 | 49 | 1012.8 |
| 20260830194004 | 36 | 151 | 6.4 | 14.5 | 0.00 | 0.00 | 0.00 | 50 | 1012.9 |
| 20260830193903 | 36 | 182 | 6.4 | 11.3 | 0.00 | 0.00 | 0.00 | 50 | 1012.9 |
| 20260830193804 | 36 | 233 | 8.0 | 16.1 | 0.00 | 0.00 | 0.00 | 50 | 1012.9 |
| 20260830193702 | 36 | 240 | 8.0 | 16.1 | 0.00 | 0.00 | 0.00 | 49 | 1012.9 |
| 20260830193602 | 36 | 262 | 6.4 | 16.1 | 0.00 | 0.00 | 0.00 | 49 | 1013.0 |
| 20260830193504 | 36 | 233 | 6.4 | 16.1 | 0.00 | 0.00 | 0.00 | 49 | 1013.0 |
| 20260830193404 | 36 | 238 | 4.8 | 16.1 | 0.00 | 0.00 | 0.00 | 50 | 1013.1 |
| 20260830193303 | 36 | 4 | 3.2 | 16.1 | 0.00 | 0.00 | 0.00 | 49 | 1013.1 |
| 20260830193204 | 36 | 110 | 8.0 | 16.1 | 0.00 | 0.00 | 0.00 | 49 | 1013.1 |
| 20260830193103 | 36 | 110 | 8.0 | 16.1 | 0.00 | 0.00 | 0.00 | 49 | 1013.1 |
| 20260830193004 | 36 | 110 | 8.0 | 16.1 | 0.00 | 0.00 | 0.00 | 49 | 1013.1 |
| 20260830192903 | 36 | 97 | 6.4 | 16.1 | 0.00 | 0.00 | 0.00 | 49 | 1013.2 |
| 20260830192804 | 36 | 96 | 6.4 | 16.1 | 0.00 | 0.00 | 0.00 | 50 | 1013.2 |
| 20260830192702 | 36 | 175 | 6.4 | 16.1 | 0.00 | 0.00 | 0.00 | 49 | 1013.2 |
| 20260830192602 | 36 | 93 | 4.8 | 16.1 | 0.00 | 0.00 | 0.00 | 50 | 1013.3 |
| 20260830192503 | 36 | 202 | 8.0 | 16.1 | 0.00 | 0.00 | 0.00 | 50 | 1013.2 |
| 20260830192403 | 36 | 165 | 9.7 | 16.1 | 0.00 | 0.00 | 0.00 | 50 | 1013.2 |
| 20260830192305 | 36 | 152 | 6.4 | 16.1 | 0.00 | 0.00 | 0.00 | 51 | 1013.3 |
| 20260830192202 | 36 | 106 | 6.4 | 14.5 | 0.00 | 0.00 | 0.00 | 51 | 1013.3 |
| 20260830192104 | 36 | 276 | 6.4 | 14.5 | 0.00 | 0.00 | 0.00 | 50 | 1013.3 |
| 20260830192001 | 36 | 262 | 6.4 | 14.5 | 0.00 | 0.00 | 0.00 | 50 | 1013.3 |
| 20260830191903 | 36 | 279 | 8.0 | 14.5 | 0.00 | 0.00 | 0.00 | 50 | 1013.3 |
| 20260830191804 | 36 | 245 | 9.7 | 14.5 | 0.00 | 0.00 | 0.00 | 50 | 1013.3 |
| 20260830191703 | 36 | 252 | 9.7 | 14.5 | 0.00 | 0.00 | 0.00 | 49 | 1013.4 |
| 20260830191602 | 36 | 220 | 8.0 | 14.5 | 0.00 | 0.00 | 0.00 | 51 | 1013.4 |
| 20260830191503 | 36 | 227 | 6.4 | 9.7 | 0.00 | 0.00 | 0.00 | 51 | 1013.4 |
| 20260830191404 | 36 | 230 | 4.8 | 9.7 | 0.00 | 0.00 | 0.00 | 51 | 1013.4 |
| 20260830191304 | 36 | 307 | 3.2 | 9.7 | 0.00 | 0.00 | 0.00 | 50 | 1013.5 |
| 20260830191203 | 36 | 309 | 3.2 | 9.7 | 0.00 | 0.00 | 0.00 | 49 | 1013.4 |
| 20260830191104 | 36 | 254 | 3.2 | 9.7 | 0.00 | 0.00 | 0.00 | 49 | 1013.6 |
| 20260830191004 | 36 | 252 | 3.2 | 9.7 | 0.00 | 0.00 | 0.00 | 50 | 1013.5 |
| 20260830190902 | 36 | 207 | 4.8 | 16.1 | 0.00 | 0.00 | 0.00 | 49 | 1013.6 |
| 20260830190802 | 36 | 92 | 4.8 | 16.1 | 0.00 | 0.00 | 0.00 | 49 | 1013.6 |
| 20260830190702 | 36 | 147 | 4.8 | 16.1 | 0.00 | 0.00 | 0.00 | 50 | 1013.5 |
| 20260830190602 | 36 | 186 | 6.4 | 16.1 | 0.00 | 0.00 | 0.00 | 49 | 1013.6 |
| 20260830190503 | 36 | 110 | 6.4 | 16.1 | 0.00 | 0.00 | 0.00 | 49 | 1013.5 |
| 20260830190403 | 36 | 165 | 3.2 | 16.1 | 0.00 | 0.00 | 0.00 | 50 | 1013.5 |
| 20260830190302 | 36 | 169 | 1.6 | 16.1 | 0.00 | 0.00 | 0.00 | 51 | 1013.6 |
| 20260830190202 | 36 | 90 | 3.2 | 16.1 | 0.00 | 0.00 | 0.00 | 51 | 1013.6 |
| 20260830190103 | 36 | 118 | 6.4 | 16.1 | 0.00 | 0.00 | 0.00 | 52 | 1013.7 |
| 20260830190004 | 36 | 120 | 6.4 | 16.1 | 0.00 | 0.00 | 0.00 | 51 | 1013.7 |
| 20260830185904 | 36 | 96 | 3.2 | 11.3 | 0.00 | 0.00 | 0.00 | 51 | 1013.6 |
| 20260830185804 | 36 | 85 | 3.2 | 11.3 | 0.00 | 0.00 | 0.00 | 51 | 1013.6 |
| 20260830185703 | 36 | 68 | 3.2 | 11.3 | 0.00 | 0.00 | 0.00 | 52 | 1013.8 |
| 20260830185603 | 36 | 94 | 3.2 | 11.3 | 0.00 | 0.00 | 0.00 | 51 | 1013.7 |
| 20260830185502 | 36 | 104 | 3.2 | 11.3 | 0.00 | 0.00 | 0.00 | 51 | 1013.8 |
| 20260830185403 | 36 | 103 | 4.8 | 11.3 | 0.00 | 0.00 | 0.00 | 51 | 1013.8 |
| 20260830185306 | 36 | 172 | 6.4 | 11.3 | 0.00 | 0.00 | 0.00 | 51 | 1013.8 |
| 20260830185201 | 36 | 250 | 4.8 | 11.3 | 0.00 | 0.00 | 0.00 | 51 | 1013.9 |
| 20260830185102 | 36 | 140 | 3.2 | 9.7 | 0.00 | 0.00 | 0.00 | 51 | 1013.8 |
| 20260830185005 | 36 | 172 | 3.2 | 9.7 | 0.00 | 0.00 | 0.00 | 51 | 1013.9 |
| 20260830184902 | 36 | 140 | 3.2 | 9.7 | 0.00 | 0.00 | 0.00 | 51 | 1013.9 |
| 20260830184802 | 36 | 157 | 3.2 | 9.7 | 0.00 | 0.00 | 0.00 | 52 | 1013.8 |
| 20260830184703 | 36 | 11 | 8.0 | 9.7 | 0.00 | 0.00 | 0.00 | 52 | 1013.8 |
| 20260830184604 | 36 | 11 | 8.0 | 16.1 | 0.00 | 0.00 | 0.00 | 52 | 1013.8 |
| 20260830184505 | 36 | 11 | 8.0 | 16.1 | 0.00 | 0.00 | 0.00 | 52 | 1013.9 |
| 20260830184359 | 36 | 358 | 8.0 | 16.1 | 0.00 | 0.00 | 0.00 | 52 | 1013.9 |
| 20260830184258 | 36 | 8 | 4.8 | 16.1 | 0.00 | 0.00 | 0.00 | 52 | 1013.9 |
| 20260830184156 | 35 | 0 | 4.8 | 16.1 | 0.00 | 0.00 | 0.00 | 52 | 1013.9 |
| 20260830184054 | 35 | 0 | 4.8 | 16.1 | 0.00 | 0.00 | 0.00 | 52 | 1013.9 |
| 20260830183952 | 35 | 38 | 3.2 | 16.1 | 0.00 | 0.00 | 0.00 | 53 | 1014.0 |
| 20260830183851 | 35 | 264 | 6.4 | 16.1 | 0.00 | 0.00 | 0.00 | 53 | 1014.0 |
| 20260830183750 | 35 | 245 | 9.7 | 16.1 | 0.00 | 0.00 | 0.00 | 53 | 1014.0 |
| 20260830183648 | 35 | 255 | 9.7 | 16.1 | 0.00 | 0.00 | 0.00 | 53 | 1014.0 |
| 20260830183546 | 35 | 252 | 6.4 | 14.5 | 0.00 | 0.00 | 0.00 | 52 | 1014.0 |
| 20260830183446 | 35 | 235 | 9.7 | 14.5 | 0.00 | 0.00 | 0.00 | 53 | 1014.0 |
| 20260830183344 | 35 | 241 | 9.7 | 14.5 | 0.00 | 0.00 | 0.00 | 53 | 1014.0 |
| 20260830183242 | 35 | 251 | 9.7 | 14.5 | 0.00 | 0.00 | 0.00 | 53 | 1014.0 |
| 20260830183140 | 35 | 259 | 9.7 | 14.5 | 0.00 | 0.00 | 0.00 | 52 | 1014.0 |
| 20260830183040 | 36 | 243 | 6.4 | 9.7 | 0.00 | 0.00 | 0.00 | 53 | 1014.1 |
| 20260830182937 | 35 | 254 | 6.4 | 9.7 | 0.00 | 0.00 | 0.00 | 53 | 1014.0 |
| 20260830182834 | 36 | 130 | 6.4 | 9.7 | 0.00 | 0.00 | 0.00 | 53 | 1014.1 |
| 20260830182735 | 35 | 165 | 6.4 | 9.7 | 0.00 | 0.00 | 0.00 | 54 | 1014.1 |
| 20260830182633 | 35 | 157 | 3.2 | 8.0 | 0.00 | 0.00 | 0.00 | 54 | 1014.1 |
| 20260830182532 | 35 | 313 | 3.2 | 9.7 | 0.00 | 0.00 | 0.00 | 55 | 1014.1 |
| 20260830182432 | 35 | 111 | 1.6 | 9.7 | 0.00 | 0.00 | 0.00 | 55 | 1014.1 |
| 20260830182331 | 35 | 69 | 3.2 | 9.7 | 0.00 | 0.00 | 0.00 | 55 | 1014.2 |
| 20260830182233 | 35 | 69 | 3.2 | 14.5 | 0.00 | 0.00 | 0.00 | 55 | 1014.2 |
| 20260830182131 | 35 | 82 | 1.6 | 14.5 | 0.00 | 0.00 | 0.00 | 56 | 1014.2 |
| 20260830182031 | 35 | 80 | 1.6 | 14.5 | 0.00 | 0.00 | 0.00 | 57 | 1014.2 |
| 20260830181932 | 34 | 82 | 1.6 | 14.5 | 0.00 | 0.00 | 0.00 | 57 | 1014.3 |
| 20260830181831 | 34 | 82 | 3.2 | 14.5 | 0.00 | 0.00 | 0.00 | 57 | 1014.3 |
| 20260830181732 | 34 | 82 | 6.4 | 14.5 | 0.00 | 0.00 | 0.00 | 57 | 1014.3 |
| 20260830181631 | 34 | 85 | 8.0 | 14.5 | 0.00 | 0.00 | 0.00 | 57 | 1014.4 |
| 20260830181532 | 34 | 83 | 8.0 | 14.5 | 0.00 | 0.00 | 0.00 | 57 | 1014.4 |
| 20260830181431 | 35 | 94 | 8.0 | 14.5 | 0.00 | 0.00 | 0.00 | 57 | 1014.4 |
| 20260830181333 | 35 | 103 | 8.0 | 14.5 | 0.00 | 0.00 | 0.00 | 56 | 1014.4 |
| 20260830181231 | 35 | 138 | 6.4 | 9.7 | 0.00 | 0.00 | 0.00 | 56 | 1014.5 |
| 20260830181132 | 35 | 109 | 4.8 | 9.7 | 0.00 | 0.00 | 0.00 | 56 | 1014.4 |
| 20260830181032 | 35 | 110 | 4.8 | 8.0 | 0.00 | 0.00 | 0.00 | 56 | 1014.5 |
| 20260830180932 | 35 | 231 | 4.8 | 9.7 | 0.00 | 0.00 | 0.00 | 57 | 1014.4 |
| 20260830180833 | 35 | 226 | 3.2 | 9.7 | 0.00 | 0.00 | 0.00 | 57 | 1014.4 |
| 20260830180731 | 34 | 293 | 4.8 | 11.3 | 0.00 | 0.00 | 0.00 | 56 | 1014.5 |
| 20260830180629 | 34 | 302 | 6.4 | 11.3 | 0.00 | 0.00 | 0.00 | 55 | 1014.5 |
| 20260830180528 | 34 | 281 | 4.8 | 11.3 | 0.00 | 0.00 | 0.00 | 56 | 1014.5 |
| 20260830180425 | 35 | 299 | 4.8 | 14.5 | 0.00 | 0.00 | 0.00 | 55 | 1014.5 |
| 20260830180324 | 35 | 299 | 4.8 | 14.5 | 0.00 | 0.00 | 0.00 | 55 | 1014.5 |
| 20260830180224 | 35 | 254 | 6.4 | 14.5 | 0.00 | 0.00 | 0.00 | 56 | 1014.6 |
| 20260830180121 | 35 | 254 | 8.0 | 14.5 | 0.00 | 0.00 | 0.00 | 56 | 1014.6 |
| 20260830180019 | 35 | 230 | 8.0 | 14.5 | 0.00 | 0.00 | 0.00 | 55 | 1014.6 |
| 20260830175917 | 35 | 214 | 8.0 | 14.5 | 0.00 | 0.00 | 0.00 | 55 | 1014.6 |
| 20260830175816 | 35 | 241 | 6.4 | 14.5 | 0.00 | 0.00 | 0.00 | 55 | 1014.7 |
| 20260830175716 | 35 | 199 | 4.8 | 14.5 | 0.00 | 0.00 | 0.00 | 56 | 1014.6 |
| 20260830175615 | 35 | 202 | 6.4 | 14.5 | 0.00 | 0.00 | 0.00 | 57 | 1014.7 |
| 20260830175512 | 35 | 157 | 8.0 | 14.5 | 0.00 | 0.00 | 0.00 | 57 | 1014.7 |
| 20260830175411 | 35 | 217 | 3.2 | 14.5 | 0.00 | 0.00 | 0.00 | 57 | 1014.7 |
| 20260830175310 | 34 | 92 | 3.2 | 8.0 | 0.00 | 0.00 | 0.00 | 57 | 1014.7 |
| 20260830175205 | 34 | 90 | 3.2 | 8.0 | 0.00 | 0.00 | 0.00 | 57 | 1014.7 |
| 20260830175103 | 34 | 87 | 4.8 | 14.5 | 0.00 | 0.00 | 0.00 | 57 | 1014.7 |
| 20260830175002 | 34 | 86 | 6.4 | 14.5 | 0.00 | 0.00 | 0.00 | 57 | 1014.8 |
| 20260830174903 | 35 | 80 | 6.4 | 14.5 | 0.00 | 0.00 | 0.00 | 57 | 1014.8 |
| 20260830174803 | 35 | 92 | 6.4 | 14.5 | 0.00 | 0.00 | 0.00 | 57 | 1014.8 |
| 20260830174702 | 35 | 86 | 4.8 | 14.5 | 0.00 | 0.00 | 0.00 | 57 | 1014.8 |
| 20260830174602 | 35 | 0 | 3.2 | 14.5 | 0.00 | 0.00 | 0.00 | 57 | 1014.8 |
| 20260830174503 | 35 | 281 | 3.2 | 14.5 | 0.00 | 0.00 | 0.00 | 57 | 1014.8 |
| 20260830174402 | 35 | 247 | 4.8 | 14.5 | 0.00 | 0.00 | 0.00 | 58 | 1014.8 |
| 20260830174302 | 34 | 251 | 6.4 | 14.5 | 0.00 | 0.00 | 0.00 | 57 | 1014.8 |
| 20260830174203 | 35 | 227 | 4.8 | 14.5 | 0.00 | 0.00 | 0.00 | 57 | 1014.8 |
| 20260830174102 | 35 | 168 | 4.8 | 14.5 | 0.00 | 0.00 | 0.00 | 57 | 1014.8 |
| 20260830174001 | 35 | 196 | 8.0 | 14.5 | 0.00 | 0.00 | 0.00 | 57 | 1014.8 |
| 20260830173903 | 35 | 190 | 8.0 | 14.5 | 0.00 | 0.00 | 0.00 | 57 | 1014.8 |
| 20260830173803 | 35 | 204 | 8.0 | 14.5 | 0.00 | 0.00 | 0.00 | 58 | 1014.9 |
| 20260830173702 | 35 | 210 | 8.0 | 14.5 | 0.00 | 0.00 | 0.00 | 59 | 1014.9 |
| 20260830173602 | 34 | 224 | 4.8 | 14.5 | 0.00 | 0.00 | 0.00 | 59 | 1014.9 |
| 20260830173503 | 34 | 334 | 1.6 | 11.3 | 0.00 | 0.00 | 0.00 | 59 | 1014.9 |
| 20260830173402 | 34 | 336 | 1.6 | 11.3 | 0.00 | 0.00 | 0.00 | 59 | 1014.9 |
| 20260830173302 | 34 | 279 | 3.2 | 11.3 | 0.00 | 0.00 | 0.00 | 58 | 1014.9 |
| 20260830173203 | 34 | 279 | 4.8 | 11.3 | 0.00 | 0.00 | 0.00 | 58 | 1015.0 |
| 20260830173103 | 34 | 231 | 6.4 | 11.3 | 0.00 | 0.00 | 0.00 | 59 | 1015.0 |
| 20260830173002 | 34 | 259 | 6.4 | 11.3 | 0.00 | 0.00 | 0.00 | 58 | 1015.0 |
| 20260830172901 | 34 | 269 | 3.2 | 8.0 | 0.00 | 0.00 | 0.00 | 59 | 1015.1 |
| 20260830172803 | 34 | 293 | 1.6 | 6.4 | 0.00 | 0.00 | 0.00 | 59 | 1015.0 |
| 20260830172702 | 34 | 357 | 3.2 | 8.0 | 0.00 | 0.00 | 0.00 | 59 | 1015.1 |
| 20260830172602 | 34 | 357 | 3.2 | 8.0 | 0.00 | 0.00 | 0.00 | 58 | 1015.0 |
| 20260830172503 | 34 | 355 | 3.2 | 8.0 | 0.00 | 0.00 | 0.00 | 59 | 1015.1 |
| 20260830172402 | 34 | 351 | 3.2 | 8.0 | 0.00 | 0.00 | 0.00 | 59 | 1015.1 |
| 20260830172306 | 34 | 310 | 1.6 | 8.0 | 0.00 | 0.00 | 0.00 | 59 | 1015.1 |
| 20260830172204 | 34 | 310 | 0.0 | 8.0 | 0.00 | 0.00 | 0.00 | 59 | 1015.1 |
| 20260830172104 | 34 | 266 | 1.6 | 8.0 | 0.00 | 0.00 | 0.00 | 58 | 1015.1 |
| 20260830172003 | 34 | 266 | 3.2 | 8.0 | 0.00 | 0.00 | 0.00 | 58 | 1015.1 |
| 20260830171902 | 34 | 257 | 3.2 | 8.0 | 0.00 | 0.00 | 0.00 | 58 | 1015.3 |
| 20260830171801 | 34 | 200 | 3.2 | 8.0 | 0.00 | 0.00 | 0.00 | 59 | 1015.3 |
| 20260830171702 | 34 | 30 | 1.6 | 8.0 | 0.00 | 0.00 | 0.00 | 59 | 1015.2 |
| 20260830171602 | 34 | 0 | 1.6 | 8.0 | 0.00 | 0.00 | 0.00 | 59 | 1015.2 |
| 20260830171502 | 33 | 0 | 1.6 | 8.0 | 0.00 | 0.00 | 0.00 | 60 | 1015.2 |
| 20260830171403 | 33 | 0 | 3.2 | 8.0 | 0.00 | 0.00 | 0.00 | 59 | 1015.2 |
| 20260830171302 | 34 | 0 | 3.2 | 8.0 | 0.00 | 0.00 | 0.00 | 58 | 1015.2 |
| 20260830171202 | 34 | 0 | 3.2 | 8.0 | 0.00 | 0.00 | 0.00 | 58 | 1015.2 |
| 20260830171104 | 34 | 96 | 3.2 | 8.0 | 0.00 | 0.00 | 0.00 | 58 | 1015.2 |
| 20260830171002 | 34 | 144 | 3.2 | 8.0 | 0.00 | 0.00 | 0.00 | 58 | 1015.2 |
| 20260830170901 | 34 | 195 | 1.6 | 8.0 | 0.00 | 0.00 | 0.00 | 59 | 1015.2 |
| 20260830170802 | 34 | 127 | 3.2 | 11.3 | 0.00 | 0.00 | 0.00 | 59 | 1015.2 |
| 20260830170702 | 34 | 127 | 3.2 | 16.1 | 0.00 | 0.00 | 0.00 | 59 | 1015.2 |
| 20260830170603 | 33 | 118 | 3.2 | 16.1 | 0.00 | 0.00 | 0.00 | 59 | 1015.2 |
| 20260830170502 | 34 | 179 | 3.2 | 16.1 | 0.00 | 0.00 | 0.00 | 60 | 1015.2 |
| 20260830170402 | 33 | 130 | 3.2 | 16.1 | 0.00 | 0.00 | 0.00 | 60 | 1015.2 |
| 20260830170302 | 33 | 96 | 4.8 | 16.1 | 0.00 | 0.00 | 0.00 | 59 | 1015.2 |
| 20260830170201 | 33 | 152 | 4.8 | 16.1 | 0.00 | 0.00 | 0.00 | 60 | 1015.2 |
| 20260830170101 | 33 | 180 | 6.4 | 16.1 | 0.00 | 0.00 | 0.00 | 61 | 1015.2 |
| 20260830170001 | 33 | 243 | 8.0 | 16.1 | 0.00 | 0.00 | 0.00 | 61 | 1015.1 |
| 20260830165901 | 33 | 264 | 8.0 | 16.1 | 0.00 | 0.00 | 0.00 | 60 | 1015.2 |
| 20260830165801 | 33 | 213 | 6.4 | 16.1 | 0.00 | 0.00 | 0.00 | 62 | 1015.1 |
| 20260830165701 | 33 | 243 | 1.6 | 8.0 | 0.00 | 0.00 | 0.00 | 62 | 1015.1 |
| 20260830165602 | 33 | 298 | 1.6 | 8.0 | 0.00 | 0.00 | 0.00 | 63 | 1015.2 |
| 20260830165500 | 33 | 305 | 3.2 | 8.0 | 0.00 | 0.00 | 0.00 | 63 | 1015.2 |
| 20260830165402 | 33 | 306 | 4.8 | 8.0 | 0.00 | 0.00 | 0.00 | 62 | 1015.1 |
| 20260830165305 | 33 | 307 | 6.4 | 8.0 | 0.00 | 0.00 | 0.00 | 62 | 1015.2 |
| 20260830165202 | 33 | 307 | 6.4 | 9.7 | 0.00 | 0.00 | 0.00 | 62 | 1015.2 |
| 20260830165103 | 33 | 324 | 1.6 | 11.3 | 0.00 | 0.00 | 0.00 | 63 | 1015.2 |
| 20260830165002 | 33 | 324 | 1.6 | 11.3 | 0.00 | 0.00 | 0.00 | 63 | 1015.2 |
| 20260830164904 | 33 | 324 | 1.6 | 11.3 | 0.00 | 0.00 | 0.00 | 63 | 1015.2 |
| 20260830164801 | 33 | 324 | 1.6 | 11.3 | 0.00 | 0.00 | 0.00 | 63 | 1015.2 |
| 20260830164700 | 33 | 302 | 1.6 | 11.3 | 0.00 | 0.00 | 0.00 | 64 | 1015.2 |
| 20260830164602 | 33 | 302 | 3.2 | 11.3 | 0.00 | 0.00 | 0.00 | 65 | 1015.3 |
| 20260830164501 | 33 | 180 | 3.2 | 11.3 | 0.00 | 0.00 | 0.00 | 65 | 1015.2 |
| 20260830164400 | 33 | 254 | 6.4 | 11.3 | 0.00 | 0.00 | 0.00 | 66 | 1015.3 |
| 20260830164302 | 33 | 254 | 8.0 | 11.3 | 0.00 | 0.00 | 0.00 | 65 | 1015.3 |
| 20260830164200 | 33 | 255 | 6.4 | 11.3 | 0.00 | 0.00 | 0.00 | 64 | 1015.2 |
| 20260830164101 | 33 | 276 | 4.8 | 9.7 | 0.00 | 0.00 | 0.00 | 65 | 1015.1 |
| 20260830164001 | 33 | 266 | 3.2 | 9.7 | 0.00 | 0.00 | 0.00 | 65 | 1015.2 |
| 20260830163901 | 33 | 210 | 3.2 | 9.7 | 0.00 | 0.00 | 0.00 | 66 | 1015.2 |
| 20260830163800 | 33 | 0 | 3.2 | 11.3 | 0.00 | 0.00 | 0.00 | 67 | 1015.2 |
| 20260830163701 | 33 | 274 | 3.2 | 11.3 | 0.00 | 0.00 | 0.00 | 67 | 1015.2 |
| 20260830163602 | 32 | 274 | 4.8 | 11.3 | 0.00 | 0.00 | 0.00 | 67 | 1015.2 |
| 20260830163501 | 32 | 248 | 4.8 | 11.3 | 0.00 | 0.00 | 0.00 | 67 | 1015.2 |
| 20260830163400 | 32 | 320 | 4.8 | 11.3 | 0.00 | 0.00 | 0.00 | 66 | 1015.2 |
| 20260830163300 | 33 | 331 | 1.6 | 11.3 | 0.00 | 0.00 | 0.00 | 66 | 1015.3 |
| 20260830163201 | 33 | 276 | 3.2 | 11.3 | 0.00 | 0.00 | 0.00 | 66 | 1015.3 |
| 20260830163101 | 33 | 276 | 6.4 | 11.3 | 0.00 | 0.00 | 0.00 | 66 | 1015.3 |
| 20260830163000 | 33 | 245 | 8.0 | 11.3 | 0.00 | 0.00 | 0.00 | 66 | 1015.3 |
| 20260830162903 | 33 | 261 | 6.4 | 11.3 | 0.00 | 0.00 | 0.00 | 66 | 1015.3 |
| 20260830162801 | 33 | 261 | 6.4 | 11.3 | 0.00 | 0.00 | 0.00 | 65 | 1015.3 |
| 20260830162700 | 33 | 255 | 6.4 | 11.3 | 0.00 | 0.00 | 0.00 | 65 | 1015.2 |
| 20260830162601 | 33 | 255 | 4.8 | 9.7 | 0.00 | 0.00 | 0.00 | 65 | 1015.4 |
| 20260830162500 | 33 | 212 | 3.2 | 9.7 | 0.00 | 0.00 | 0.00 | 64 | 1015.3 |
| 20260830162400 | 33 | 165 | 4.8 | 9.7 | 0.00 | 0.00 | 0.00 | 65 | 1015.3 |
| 20260830162300 | 33 | 255 | 3.2 | 9.7 | 0.00 | 0.00 | 0.00 | 65 | 1015.3 |
| 20260830162203 | 33 | 262 | 3.2 | 8.0 | 0.00 | 0.00 | 0.00 | 65 | 1015.4 |
| 20260830162100 | 33 | 185 | 4.8 | 8.0 | 0.00 | 0.00 | 0.00 | 66 | 1015.3 |
| 20260830162000 | 33 | 285 | 4.8 | 8.0 | 0.00 | 0.00 | 0.00 | 67 | 1015.3 |
| 20260830161900 | 33 | 161 | 3.2 | 8.0 | 0.00 | 0.00 | 0.00 | 67 | 1015.3 |
| 20260830161759 | 32 | 175 | 3.2 | 8.0 | 0.00 | 0.00 | 0.00 | 68 | 1015.3 |
| 20260830161700 | 32 | 158 | 3.2 | 8.0 | 0.00 | 0.00 | 0.00 | 68 | 1015.3 |
| 20260830161601 | 32 | 288 | 3.2 | 8.0 | 0.00 | 0.00 | 0.00 | 68 | 1015.2 |
| 20260830161502 | 32 | 288 | 3.2 | 8.0 | 0.00 | 0.00 | 0.00 | 68 | 1015.3 |
| 20260830161401 | 32 | 240 | 3.2 | 8.0 | 0.00 | 0.00 | 0.00 | 68 | 1015.3 |
| 20260830161300 | 32 | 240 | 3.2 | 8.0 | 0.00 | 0.00 | 0.00 | 68 | 1015.3 |
| 20260830161201 | 32 | 240 | 3.2 | 8.0 | 0.00 | 0.00 | 0.00 | 68 | 1015.2 |
| 20260830161101 | 32 | 276 | 3.2 | 6.4 | 0.00 | 0.00 | 0.00 | 68 | 1015.3 |
| 20260830161001 | 32 | 258 | 3.2 | 6.4 | 0.00 | 0.00 | 0.00 | 67 | 1015.3 |
| 20260830160900 | 32 | 262 | 3.2 | 6.4 | 0.00 | 0.00 | 0.00 | 67 | 1015.3 |
| 20260830160800 | 32 | 268 | 4.8 | 6.4 | 0.00 | 0.00 | 0.00 | 68 | 1015.3 |
| 20260830160701 | 32 | 238 | 4.8 | 8.0 | 0.00 | 0.00 | 0.00 | 67 | 1015.4 |
| 20260830160600 | 32 | 261 | 1.6 | 9.7 | 0.00 | 0.00 | 0.00 | 67 | 1015.3 |
| 20260830160500 | 32 | 219 | 1.6 | 9.7 | 0.00 | 0.00 | 0.00 | 68 | 1015.3 |
| 20260830160401 | 32 | 210 | 3.2 | 9.7 | 0.00 | 0.00 | 0.00 | 68 | 1015.3 |
| 20260830160259 | 32 | 209 | 3.2 | 9.7 | 0.00 | 0.00 | 0.00 | 68 | 1015.3 |
| 20260830160159 | 32 | 207 | 3.2 | 9.7 | 0.00 | 0.00 | 0.00 | 69 | 1015.3 |
| 20260830160059 | 32 | 250 | 3.2 | 9.7 | 0.00 | 0.00 | 0.00 | 68 | 1015.3 |
| 20260830160000 | 32 | 250 | 4.8 | 9.7 | 0.00 | 0.00 | 0.00 | 69 | 1015.4 |
| 20260830155859 | 32 | 250 | 6.4 | 9.7 | 0.00 | 0.00 | 0.00 | 69 | 1015.3 |
| 20260830155801 | 32 | 240 | 6.4 | 9.7 | 0.00 | 0.00 | 0.00 | 69 | 1015.3 |
| 20260830155659 | 32 | 233 | 4.8 | 9.7 | 0.00 | 0.00 | 0.00 | 69 | 1015.3 |
| 20260830155600 | 32 | 248 | 6.4 | 9.7 | 0.00 | 0.00 | 0.00 | 69 | 1015.2 |
| 20260830155459 | 32 | 233 | 6.4 | 9.7 | 0.00 | 0.00 | 0.00 | 69 | 1015.3 |
| 20260830155359 | 32 | 247 | 4.8 | 8.0 | 0.00 | 0.00 | 0.00 | 69 | 1015.3 |
| 20260830155300 | 31 | 269 | 3.2 | 8.0 | 0.00 | 0.00 | 0.00 | 70 | 1015.3 |
| 20260830155200 | 31 | 233 | 3.2 | 8.0 | 0.00 | 0.00 | 0.00 | 69 | 1015.3 |
| 20260830155100 | 31 | 303 | 1.6 | 6.4 | 0.00 | 0.00 | 0.00 | 70 | 1015.3 |
| 20260830154959 | 31 | 303 | 1.6 | 8.0 | 0.00 | 0.00 | 0.00 | 70 | 1015.3 |
| 20260830154859 | 31 | 303 | 3.2 | 8.0 | 0.00 | 0.00 | 0.00 | 70 | 1015.3 |
| 20260830154800 | 31 | 303 | 3.2 | 9.7 | 0.00 | 0.00 | 0.00 | 69 | 1015.4 |
| 20260830154700 | 31 | 278 | 1.6 | 9.7 | 0.00 | 0.00 | 0.00 | 69 | 1015.3 |
| 20260830154559 | 31 | 233 | 1.6 | 9.7 | 0.00 | 0.00 | 0.00 | 69 | 1015.4 |
| 20260830154459 | 31 | 233 | 1.6 | 9.7 | 0.00 | 0.00 | 0.00 | 69 | 1015.3 |
| 20260830154402 | 31 | 238 | 3.2 | 11.3 | 0.00 | 0.00 | 0.00 | 69 | 1015.4 |
| 20260830154259 | 31 | 254 | 4.8 | 14.5 | 0.00 | 0.00 | 0.00 | 69 | 1015.4 |
| 20260830154202 | 31 | 254 | 4.8 | 14.5 | 0.00 | 0.00 | 0.00 | 69 | 1015.3 |
| 20260830154100 | 31 | 234 | 4.8 | 14.5 | 0.00 | 0.00 | 0.00 | 69 | 1015.3 |